M I D A S
Marine Information and Data Acquisition System
Tripno 1495 of the Zeeleeuw from 2008-05-29 08:08:25 to 2008-05-29 13:25:32
Back to CruiseResearch ActivitiesStationsMapUnderway DataData graphs

EquipmentUnitsComment
TimeDGPSUTC
LatitudeDGPSDM.mWGS84
LongitudeDGPSDM.mWGS84
TemperatureSBE03/SBE38deg celciusITS90
ConductivitySBE21S/mITS90
SalinitySBE21 Practical Salinity Units
ChlorophylAChelsea fluorimeterg/lCalibrated in Aceton
Missing or incorrect values are displayed as -999
Sea surface data collected by the RV Zeeleeuw from 2008-05-29 08:10:42 to 2008-05-29 13:32:13
                                                                                    Next 1000 lines
Time Latitude Longitude Temperature Conductivity Salinity ChlorophylA
2008-05-29 08:10:52 51°13.624 2°56.046 20.2415 0.01041 0.057622 -1.731873
2008-05-29 08:10:57 51°13.624 2°56.044 20.2451 0.01041 0.057622 -1.731873
2008-05-29 08:11:03 51°13.625 2°56.04 20.257 0.01041 0.057622 -1.731873
2008-05-29 08:11:08 51°13.627 2°56.037 20.2546 0.01041 0.057622 -1.766697
2008-05-29 08:11:13 51°13.628 2°56.033 20.2565 0.01041 0.057622 -1.766697
2008-05-29 08:11:18 51°13.63 2°56.028 20.2596 0.01041 0.057623 -1.731873
2008-05-29 08:11:23 51°13.631 2°56.023 20.2566 0.01041 0.057623 -1.731873
2008-05-29 08:11:28 51°13.633 2°56.018 20.2514 0.01041 0.057623 -1.731873
2008-05-29 08:11:33 51°13.635 2°56.012 20.2561 0.01041 0.057623 -1.766697
2008-05-29 08:11:38 51°13.638 2°56.005 20.2551 0.01041 0.057624 -1.731873
2008-05-29 08:11:43 51°13.64 2°55.998 20.2583 0.01041 0.057624 -1.766697
2008-05-29 08:11:48 51°13.643 2°55.99 20.2602 0.01041 0.057624 -1.766697
2008-05-29 08:11:53 51°13.646 2°55.983 20.2603 0.01041 0.057624 -1.766697
2008-05-29 08:11:58 51°13.648 2°55.974 20.2599 0.01041 0.057624 -1.766697
2008-05-29 08:12:03 51°13.651 2°55.966 20.2604 0.01041 0.057624 -1.731873
2008-05-29 08:12:08 51°13.654 2°55.957 20.2612 0.01041 0.057624 -1.731873
2008-05-29 08:12:13 51°13.657 2°55.948 20.2623 0.01041 0.057624 -1.766697
2008-05-29 08:12:18 51°13.66 2°55.939 20.2639 0.01041 0.057624 -1.731873
2008-05-29 08:12:23 51°13.663 2°55.929 20.2646 0.01041 0.057624 -1.731873
2008-05-29 08:12:28 51°13.667 2°55.92 20.2646 0.01041 0.057624 -1.731873
2008-05-29 08:12:33 51°13.669 2°55.91 20.2661 0.01041 0.057625 -1.731873
2008-05-29 08:12:38 51°13.672 2°55.9 20.2669 0.01041 0.057625 -1.731873
2008-05-29 08:12:43 51°13.675 2°55.89 20.267 0.01041 0.057626 -1.731873
2008-05-29 08:12:48 51°13.678 2°55.881 20.2688 0.01041 0.057626 -1.766697
2008-05-29 08:12:53 51°13.68 2°55.871 20.2695 0.01041 0.057626 -1.766697
2008-05-29 08:12:58 51°13.683 2°55.861 20.2699 0.01041 0.057626 -1.766697
2008-05-29 08:13:03 51°13.685 2°55.852 20.2707 0.01041 0.057626 -1.731873
2008-05-29 08:13:08 51°13.686 2°55.843 20.2704 0.01041 0.057627 -1.731873
2008-05-29 08:13:13 51°13.688 2°55.834 20.2714 0.01041 0.057627 -1.731873
2008-05-29 08:13:18 51°13.69 2°55.825 20.2722 0.01041 0.057627 -1.731873
2008-05-29 08:13:23 51°13.691 2°55.817 20.2733 0.01041 0.057627 -1.731873
2008-05-29 08:13:28 51°13.692 2°55.809 20.2733 0.01041 0.057627 -1.731873
2008-05-29 08:13:33 51°13.693 2°55.801 20.2723 0.01041 0.057627 -1.731873
2008-05-29 08:13:38 51°13.694 2°55.794 20.2724 0.01041 0.057627 -1.731873
2008-05-29 08:13:43 51°13.695 2°55.787 20.2741 0.01041 0.057627 -1.731873
2008-05-29 08:13:48 51°13.695 2°55.781 20.2751 0.01041 0.057627 -1.731873
2008-05-29 08:13:53 51°13.696 2°55.776 20.2765 0.01041 0.057627 -1.731873
2008-05-29 08:13:57 51°13.696 2°55.772 20.2773 0.01041 0.057627 -1.731873
2008-05-29 08:14:02 51°13.696 2°55.768 20.276 0.01041 0.057627 -1.731873
2008-05-29 08:14:08 51°13.697 2°55.763 20.2766 0.01041 0.057628 -1.731873
2008-05-29 08:14:13 51°13.697 2°55.76 20.2774 0.01041 0.057628 -1.766697
2008-05-29 08:14:18 51°13.697 2°55.758 20.279 0.01041 0.057628 -1.731873
2008-05-29 08:14:23 51°13.697 2°55.756 20.2799 0.01041 0.057628 -1.731873
2008-05-29 08:14:28 51°13.697 2°55.755 20.2777 0.01041 0.057628 -1.731873
2008-05-29 08:14:33 51°13.697 2°55.754 20.2777 0.01041 0.057628 -1.731873
2008-05-29 08:14:38 51°13.698 2°55.753 20.2792 0.01041 0.057629 -1.731873
2008-05-29 08:14:43 51°13.698 2°55.753 20.2809 0.01041 0.057629 -1.731873
2008-05-29 08:14:48 51°13.698 2°55.754 20.2821 0.01041 0.057629 -1.766697
2008-05-29 08:14:53 51°13.699 2°55.755 20.2824 0.01041 0.057629 -1.731873
2008-05-29 08:14:58 51°13.7 2°55.756 20.2823 0.01041 0.057629 -1.731873
2008-05-29 08:15:02 51°13.701 2°55.757 20.2834 0.01041 0.057629 -1.731873
2008-05-29 08:15:07 51°13.702 2°55.759 20.2842 0.01041 0.057629 -1.731873
2008-05-29 08:15:12 51°13.703 2°55.76 20.28 0.01041 0.057629 -1.731873
2008-05-29 08:15:17 51°13.704 2°55.761 20.2784 0.01041 0.05763 -1.731873
2008-05-29 08:15:22 51°13.705 2°55.762 20.2794 0.01041 0.05763 -1.766697
2008-05-29 08:15:27 51°13.705 2°55.762 20.2803 0.01041 0.05763 -1.766697
2008-05-29 08:15:32 51°13.705 2°55.762 20.2798 0.01041 0.05763 -1.766697
2008-05-29 08:15:37 51°13.704 2°55.761 20.2804 0.01041 0.057631 -1.766697
2008-05-29 08:15:42 51°13.703 2°55.759 20.2793 0.01041 0.057631 -1.731873
2008-05-29 08:15:48 51°13.701 2°55.757 20.282 0.01041 0.057632 -1.766697
2008-05-29 08:15:53 51°13.699 2°55.755 20.2843 0.01041 0.057631 -1.731873
2008-05-29 08:15:58 51°13.697 2°55.753 20.2847 0.01041 0.057631 -1.731873
2008-05-29 08:16:03 51°13.696 2°55.752 20.2865 0.01041 0.057632 -1.766697
2008-05-29 08:16:08 51°13.695 2°55.751 20.287 0.01041 0.057632 -1.731873
2008-05-29 08:16:13 51°13.696 2°55.75 20.2877 0.01041 0.057632 -1.766697
2008-05-29 08:16:18 51°13.697 2°55.75 20.2871 0.01041 0.057632 -1.731873
2008-05-29 08:16:23 51°13.698 2°55.75 20.2857 0.01041 0.057632 -1.731873
2008-05-29 08:16:28 51°13.701 2°55.75 20.2849 0.01041 0.057632 -1.731873
2008-05-29 08:16:33 51°13.705 2°55.749 20.2859 0.01041 0.057632 -1.731873
2008-05-29 08:16:38 51°13.71 2°55.746 20.285 0.01041 0.057632 -1.731873
2008-05-29 08:16:42 51°13.714 2°55.744 20.2847 0.01041 0.057633 -1.731873
2008-05-29 08:16:47 51°13.72 2°55.74 20.2845 0.01041 0.057633 -1.731873
2008-05-29 08:16:53 51°13.728 2°55.733 20.2862 0.01041 0.057633 -1.731873
2008-05-29 08:16:58 51°13.736 2°55.727 20.2841 0.01041 0.057633 -1.731873
2008-05-29 08:17:02 51°13.742 2°55.721 20.284 0.01041 0.057633 -1.731873
2008-05-29 08:17:07 51°13.75 2°55.713 20.2823 0.01041 0.057634 -1.731873
2008-05-29 08:17:12 51°13.757 2°55.705 20.2711 0.01041 0.057634 -1.731873
2008-05-29 08:17:17 51°13.765 2°55.697 20.2732 0.01041 0.057634 -1.731873
2008-05-29 08:17:22 51°13.773 2°55.689 20.2715 0.01041 0.057634 -1.731873
2008-05-29 08:17:27 51°13.78 2°55.681 20.2738 0.01041 0.057634 -1.731873
2008-05-29 08:17:31 51°13.786 2°55.674 20.2757 0.01041 0.057634 -1.766697
2008-05-29 08:17:36 51°13.794 2°55.667 20.277 0.01041 0.057634 -1.731873
2008-05-29 08:17:41 51°13.802 2°55.659 20.278 0.01041 0.057634 -1.731873
2008-05-29 08:17:46 51°13.809 2°55.652 20.2799 0.01041 0.057635 -1.731873
2008-05-29 08:17:51 51°13.817 2°55.645 20.2791 0.01041 0.057635 -1.731873
2008-05-29 08:17:56 51°13.825 2°55.639 20.2805 0.01041 0.057635 -1.731873
2008-05-29 08:18:01 51°13.833 2°55.632 20.2813 0.01041 0.057635 -1.731873
2008-05-29 08:18:05 51°13.839 2°55.627 20.2818 0.01041 0.057636 -1.731873
2008-05-29 08:18:10 51°13.847 2°55.621 20.2816 0.01041 0.057636 -1.766697
2008-05-29 08:18:15 51°13.854 2°55.614 20.2802 0.01041 0.057636 -1.731873
2008-05-29 08:18:20 51°13.862 2°55.608 20.2811 0.01041 0.057637 -1.731873
2008-05-29 08:18:25 51°13.87 2°55.603 20.2804 0.01041 0.057637 -1.731873
2008-05-29 08:18:30 51°13.878 2°55.597 20.2857 0.01041 0.057637 -1.766697
2008-05-29 08:18:34 51°13.884 2°55.593 20.2878 0.01041 0.057637 -1.731873
2008-05-29 08:18:39 51°13.892 2°55.587 20.2918 0.01041 0.057637 -1.731873
2008-05-29 08:18:45 51°13.902 2°55.581 20.2913 0.01041 0.057637 -1.731873
2008-05-29 08:18:49 51°13.908 2°55.577 20.2927 0.01041 0.057637 -1.731873
2008-05-29 08:18:54 51°13.916 2°55.572 20.2926 0.01041 0.057637 -1.731873
2008-05-29 08:18:59 51°13.924 2°55.567 20.2934 0.01041 0.057637 -1.731873
2008-05-29 08:19:05 51°13.933 2°55.561 20.2944 0.01041 0.057637 -1.731873
2008-05-29 08:19:09 51°13.94 2°55.557 20.2943 0.01041 0.057638 -1.731873
2008-05-29 08:19:14 51°13.947 2°55.553 20.295 0.01041 0.057638 -1.731873
2008-05-29 08:19:19 51°13.955 2°55.548 20.2972 0.01041 0.057638 -1.766697
2008-05-29 08:19:25 51°13.965 2°55.541 20.2971 0.01041 0.057638 -1.766697
2008-05-29 08:19:29 51°13.971 2°55.537 20.2952 0.01041 0.057639 -1.731873
2008-05-29 08:19:34 51°13.978 2°55.532 20.2956 0.01041 0.057639 -1.766697
2008-05-29 08:19:39 51°13.986 2°55.527 20.2962 0.01041 0.057639 -1.731873
2008-05-29 08:19:45 51°13.994 2°55.521 20.2967 0.01041 0.057639 -1.731873
2008-05-29 08:19:49 51°14 2°55.517 20.2988 0.01041 0.057639 -1.731873
2008-05-29 08:19:54 51°14.007 2°55.512 20.2995 0.01041 0.057639 -1.731873
2008-05-29 08:19:59 51°14.013 2°55.508 20.2997 0.01041 0.057639 -1.731873
2008-05-29 08:20:05 51°14.021 2°55.502 20.2997 0.01041 0.05764 -1.766697
2008-05-29 08:20:09 51°14.026 2°55.499 20.3 0.01041 0.05764 -1.731873
2008-05-29 08:20:14 51°14.032 2°55.494 20.2996 0.01041 0.05764 -1.766697
2008-05-29 08:20:19 51°14.038 2°55.49 20.3018 0.01041 0.057641 -1.731873
2008-05-29 08:20:25 51°14.046 2°55.486 20.3028 0.01041 0.057641 -1.731873
2008-05-29 08:20:29 51°14.05 2°55.483 20.3045 0.01041 0.057641 -1.766697
2008-05-29 08:20:34 51°14.056 2°55.479 20.3051 0.01041 0.057641 -1.731873
2008-05-29 08:20:39 51°14.062 2°55.475 20.305 0.01041 0.057642 -1.731873
2008-05-29 08:20:45 51°14.068 2°55.47 20.3039 0.01041 0.057642 -1.766697
2008-05-29 08:20:50 51°14.074 2°55.466 20.3058 0.01041 0.057642 -1.731873
2008-05-29 08:20:55 51°14.08 2°55.462 20.3065 0.01041 0.057642 -1.731873
2008-05-29 08:21:00 51°14.085 2°55.459 20.3065 0.01041 0.057642 -1.731873
2008-05-29 08:21:05 51°14.091 2°55.455 20.3066 0.01041 0.057642 -1.731873
2008-05-29 08:21:10 51°14.096 2°55.451 20.306 0.01041 0.057642 -1.731873
2008-05-29 08:21:15 51°14.101 2°55.447 20.3054 0.01041 0.057642 -1.731873
2008-05-29 08:21:20 51°14.106 2°55.443 20.3045 0.01041 0.057643 -1.766697
2008-05-29 08:21:25 51°14.111 2°55.439 20.3071 0.01041 0.057643 -1.766697
2008-05-29 08:21:30 51°14.116 2°55.435 20.3073 0.01041 0.057643 -1.731873
2008-05-29 08:21:35 51°14.121 2°55.432 20.3081 0.01041 0.057643 -1.731873
2008-05-29 08:21:41 51°14.127 2°55.427 20.311 0.01041 0.057644 -1.731873
2008-05-29 08:21:46 51°14.132 2°55.424 20.3129 0.01041 0.057644 -1.731873
2008-05-29 08:21:52 51°14.139 2°55.419 20.313 0.01041 0.057644 -1.731873
2008-05-29 08:21:58 51°14.146 2°55.413 20.3142 0.01041 0.057644 -1.731873
2008-05-29 08:22:03 51°14.153 2°55.409 20.314 0.01041 0.057644 -1.731873
2008-05-29 08:22:08 51°14.16 2°55.404 20.3133 0.01041 0.057644 -1.731873
2008-05-29 08:22:13 51°14.167 2°55.398 20.3135 0.01041 0.057645 -1.731873
2008-05-29 08:22:17 51°14.173 2°55.393 20.3126 0.01041 0.057645 -1.766697
2008-05-29 08:22:22 51°14.181 2°55.387 20.3095 0.01041 0.057645 -1.731873
2008-05-29 08:22:28 51°14.19 2°55.38 20.3034 0.01041 0.057645 -1.731873
2008-05-29 08:22:33 51°14.197 2°55.374 20.3086 0.01041 0.057646 -1.766697
2008-05-29 08:22:37 51°14.203 2°55.369 20.3075 0.01041 0.057646 -1.731873
2008-05-29 08:22:42 51°14.211 2°55.363 20.3118 0.01041 0.057646 -1.731873
2008-05-29 08:22:48 51°14.219 2°55.355 20.3123 0.01041 0.057646 -1.731873
2008-05-29 08:22:52 51°14.224 2°55.349 20.3108 0.01041 0.057647 -1.766697
2008-05-29 08:22:57 51°14.231 2°55.341 20.3113 0.01041 0.057647 -1.766697
2008-05-29 08:23:02 51°14.236 2°55.333 20.302 0.01041 0.057647 -1.731873
2008-05-29 08:23:07 51°14.242 2°55.324 20.3019 0.01041 0.057647 -1.731873
2008-05-29 08:23:12 51°14.247 2°55.315 20.309 0.01041 0.057647 -1.731873
2008-05-29 08:23:17 51°14.253 2°55.305 20.3068 0.01041 0.057647 -1.731873
2008-05-29 08:23:21 51°14.257 2°55.297 20.3075 0.01041 0.057647 -1.766697
2008-05-29 08:23:26 51°14.262 2°55.286 20.3046 0.01041 0.057647 -1.766697
2008-05-29 08:23:31 51°14.268 2°55.274 20.3079 0.01041 0.057648 -1.731873
2008-05-29 08:23:36 51°14.274 2°55.262 20.3124 0.01041 0.057648 -1.731873
2008-05-29 08:23:41 51°14.28 2°55.248 20.3098 0.01041 0.057648 -1.731873
2008-05-29 08:23:46 51°14.286 2°55.234 20.3097 0.01041 0.057649 -1.731873
2008-05-29 08:23:52 51°14.293 2°55.216 20.3064 0.01041 0.057649 -1.731873
2008-05-29 08:23:57 51°14.3 2°55.201 20.2975 0.01041 0.057649 -1.731873
2008-05-29 08:24:02 51°14.306 2°55.186 20.3058 0.01041 0.057649 -1.731873
2008-05-29 08:24:07 51°14.313 2°55.17 20.3066 0.01041 0.057649 -1.731873
2008-05-29 08:24:11 51°14.319 2°55.157 20.3096 0.01041 0.057649 -1.731873
2008-05-29 08:24:16 51°14.325 2°55.14 20.31 0.01041 0.057649 -1.731873
2008-05-29 08:24:21 51°14.332 2°55.122 20.3073 0.01041 0.057649 -1.731873
2008-05-29 08:24:26 51°14.339 2°55.103 20.3045 0.01041 0.057649 -1.731873
2008-05-29 08:24:31 51°14.345 2°55.083 20.3056 0.01041 0.05765 -1.731873
2008-05-29 08:24:36 51°14.351 2°55.062 20.3057 0.01041 0.05765 -1.766697
2008-05-29 08:24:41 51°14.358 2°55.041 20.3012 0.01041 0.057651 -1.766697
2008-05-29 08:24:45 51°14.363 2°55.024 20.3 0.01041 0.057651 -1.766697
2008-05-29 08:24:50 51°14.37 2°55.002 20.2957 0.01041 0.057652 -1.766697
2008-05-29 08:24:55 51°14.377 2°54.98 20.2998 0.01041 0.057652 -1.766697
2008-05-29 08:25:00 51°14.384 2°54.958 20.3053 0.01041 0.057652 -1.731873
2008-05-29 08:25:05 51°14.391 2°54.936 20.3075 0.01041 0.057652 -1.731873
2008-05-29 08:25:10 51°14.398 2°54.913 20.3018 0.01041 0.057652 -1.731873
2008-05-29 08:25:14 51°14.403 2°54.895 20.2928 0.01041 0.057652 -1.766697
2008-05-29 08:25:19 51°14.41 2°54.871 20.2877 0.01041 0.057653 -1.731873
2008-05-29 08:25:24 51°14.418 2°54.848 20.284 0.01041 0.057653 -1.731873
2008-05-29 08:25:29 51°14.425 2°54.824 20.2837 0.01041 0.057653 -1.766697
2008-05-29 08:25:34 51°14.433 2°54.801 20.2925 0.01041 0.057654 -1.731873
2008-05-29 08:25:39 51°14.441 2°54.778 20.298 0.01041 0.057653 -1.731873
2008-05-29 08:25:45 51°14.452 2°54.751 20.2909 0.01041 0.057654 -1.731873
2008-05-29 08:25:49 51°14.457 2°54.732 20.2993 0.01041 0.057654 -1.731873
2008-05-29 08:25:54 51°14.466 2°54.71 20.282 0.01041 0.057654 -1.731873
2008-05-29 08:25:59 51°14.474 2°54.687 20.2799 0.01041 0.057654 -1.731873
2008-05-29 08:26:04 51°14.482 2°54.664 20.2801 0.01041 0.057656 -1.731873
2008-05-29 08:26:09 51°14.49 2°54.64 20.289 0.01041 0.057655 -1.731873
2008-05-29 08:26:14 51°14.498 2°54.618 20.2913 0.01041 0.057656 -1.731873
2008-05-29 08:26:19 51°14.506 2°54.595 20.2951 0.01041 0.057657 -1.731873
2008-05-29 08:26:24 51°14.515 2°54.572 20.2818 0.01041 0.057657 -1.731873
2008-05-29 08:26:29 51°14.522 2°54.549 20.2875 0.01041 0.057657 -1.731873
2008-05-29 08:26:34 51°14.53 2°54.525 20.274 0.01041 0.057657 -1.731873
2008-05-29 08:26:39 51°14.538 2°54.501 20.2789 0.01041 0.057659 -1.731873
2008-05-29 08:26:44 51°14.545 2°54.477 20.2941 0.01041 0.057658 -1.731873
2008-05-29 08:26:49 51°14.553 2°54.454 20.2852 0.01041 0.05766 -1.731873
2008-05-29 08:26:54 51°14.561 2°54.43 20.2896 0.01041 0.05766 -1.731873
2008-05-29 08:26:59 51°14.569 2°54.405 20.281 0.01041 0.05766 -1.731873
2008-05-29 08:27:05 51°14.578 2°54.377 20.2847 0.01041 0.05766 -1.731873
2008-05-29 08:27:09 51°14.584 2°54.358 20.2906 0.01041 0.05766 -1.731873
2008-05-29 08:27:14 51°14.592 2°54.334 20.2786 0.01041 0.057661 -1.731873
2008-05-29 08:27:19 51°14.599 2°54.31 20.2854 0.01041 0.057661 -1.766697
2008-05-29 08:27:25 51°14.609 2°54.282 20.2921 0.01041 0.057661 -1.766697
2008-05-29 08:27:29 51°14.615 2°54.262 20.2915 0.01041 0.057661 -1.731873
2008-05-29 08:27:34 51°14.622 2°54.238 20.2925 0.01041 0.057662 -1.766697
2008-05-29 08:27:39 51°14.63 2°54.214 20.2924 0.01041 0.057662 -1.731873
2008-05-29 08:27:45 51°14.639 2°54.186 20.2864 0.01041 0.057662 -1.731873
2008-05-29 08:27:49 51°14.645 2°54.166 20.296 0.01041 0.057662 -1.731873
2008-05-29 08:27:54 51°14.651 2°54.141 20.2862 0.01041 0.057662 -1.731873
2008-05-29 08:27:59 51°14.657 2°54.116 20.2955 0.01041 0.057663 -1.766697
2008-05-29 08:28:05 51°14.664 2°54.086 20.2863 0.01041 0.057664 -1.766697
2008-05-29 08:28:09 51°14.667 2°54.065 20.2966 0.01041 0.057664 -1.766697
2008-05-29 08:28:14 51°14.672 2°54.039 20.2944 0.01041 0.057664 -1.731873
2008-05-29 08:28:19 51°14.677 2°54.013 20.291 0.01041 0.057665 -1.731873
2008-05-29 08:28:24 51°14.681 2°53.987 20.2878 0.01041 0.057665 -1.731873
2008-05-29 08:28:29 51°14.685 2°53.961 20.2887 0.01041 0.057665 -1.766697
2008-05-29 08:28:34 51°14.689 2°53.935 20.2906 0.01041 0.057665 -1.731873
2008-05-29 08:28:39 51°14.694 2°53.909 20.2859 0.01041 0.057665 -1.766697
2008-05-29 08:28:44 51°14.698 2°53.883 20.2863 0.01041 0.057665 -1.731873
2008-05-29 08:28:49 51°14.702 2°53.857 20.2795 0.01041 0.057665 -1.766697
2008-05-29 08:28:54 51°14.706 2°53.831 20.2882 0.01041 0.057665 -1.766697
2008-05-29 08:28:59 51°14.71 2°53.805 20.2801 0.01041 0.057665 -1.731873
2008-05-29 08:29:04 51°14.715 2°53.78 20.2898 0.01041 0.057665 -1.731873
2008-05-29 08:29:09 51°14.719 2°53.754 20.2904 0.01041 0.057666 -1.731873
2008-05-29 08:29:14 51°14.724 2°53.729 20.2891 0.01041 0.057666 -1.766697
2008-05-29 08:29:19 51°14.729 2°53.703 20.2884 0.01041 0.057667 -1.731873
2008-05-29 08:29:25 51°14.736 2°53.672 20.2903 0.01041 0.057667 -1.731873
2008-05-29 08:29:29 51°14.739 2°53.652 20.287 0.01041 0.057666 -1.731873
2008-05-29 08:29:34 51°14.745 2°53.626 20.2891 0.01041 0.057667 -1.731873
2008-05-29 08:29:39 51°14.749 2°53.6 20.2859 0.01041 0.057668 -1.731873
2008-05-29 08:29:45 51°14.755 2°53.57 20.2859 0.01041 0.057668 -1.731873
2008-05-29 08:29:49 51°14.759 2°53.549 20.2885 0.01041 0.057668 -1.766697
2008-05-29 08:29:54 51°14.764 2°53.523 20.2877 0.01041 0.057668 -1.766697
2008-05-29 08:29:59 51°14.769 2°53.497 20.2901 0.01041 0.057669 -1.731873
2008-05-29 08:30:05 51°14.774 2°53.466 20.2898 0.01041 0.05767 -1.731873
2008-05-29 08:30:09 51°14.778 2°53.445 20.2939 0.01041 0.05767 -1.731873
2008-05-29 08:30:14 51°14.783 2°53.419 20.2914 0.01041 0.05767 -1.766697
2008-05-29 08:30:19 51°14.787 2°53.393 20.2924 0.01041 0.05767 -1.766697
2008-05-29 08:30:25 51°14.793 2°53.361 20.2948 0.01041 0.05767 -1.766697
2008-05-29 08:30:29 51°14.796 2°53.34 20.2899 0.01041 0.05767 -1.731873
2008-05-29 08:30:34 51°14.8 2°53.314 20.2879 0.01041 0.057671 -1.731873
2008-05-29 08:30:39 51°14.805 2°53.288 20.2946 0.01041 0.057672 -1.766697
2008-05-29 08:30:45 51°14.81 2°53.257 20.2942 0.01041 0.057671 -1.731873
2008-05-29 08:30:49 51°14.814 2°53.236 20.2955 0.01041 0.057671 -1.731873
2008-05-29 08:30:54 51°14.818 2°53.21 20.2947 0.01041 0.057671 -1.731873
2008-05-29 08:31:00 51°14.824 2°53.179 20.2954 0.01041 0.057672 -1.731873
2008-05-29 08:31:04 51°14.828 2°53.158 20.2877 0.01041 0.057672 -1.731873
2008-05-29 08:31:09 51°14.833 2°53.132 20.2957 0.01041 0.057672 -1.766697
2008-05-29 08:31:14 51°14.838 2°53.106 20.296 0.01041 0.057672 -1.731873
2008-05-29 08:31:19 51°14.842 2°53.079 20.2948 0.01041 0.057672 -1.731873
2008-05-29 08:31:24 51°14.847 2°53.054 20.2915 0.01041 0.057672 -1.731873
2008-05-29 08:31:29 51°14.85 2°53.027 20.2986 0.01041 0.057673 -1.766697
2008-05-29 08:31:34 51°14.854 2°53 20.2949 0.01041 0.057674 -1.731873
2008-05-29 08:31:40 51°14.859 2°52.968 20.2955 0.01041 0.057674 -1.731873
2008-05-29 08:31:44 51°14.861 2°52.947 20.2873 0.01041 0.057675 -1.731873
2008-05-29 08:31:49 51°14.864 2°52.92 20.2996 0.01041 0.057674 -1.731873
2008-05-29 08:31:54 51°14.868 2°52.893 20.2978 0.01041 0.057674 -1.731873
2008-05-29 08:31:59 51°14.87 2°52.866 20.2998 0.01041 0.057675 -1.731873
2008-05-29 08:32:05 51°14.873 2°52.834 20.2994 0.01041 0.057675 -1.766697
2008-05-29 08:32:09 51°14.876 2°52.813 20.2954 0.01041 0.057675 -1.766697
2008-05-29 08:32:14 51°14.878 2°52.786 20.296 0.01041 0.057675 -1.766697
2008-05-29 08:32:19 51°14.881 2°52.759 20.3006 0.01041 0.057675 -1.731873
2008-05-29 08:32:24 51°14.884 2°52.732 20.2914 0.01041 0.057675 -1.731873
2008-05-29 08:32:29 51°14.887 2°52.705 20.3018 0.01041 0.057676 -1.766697
2008-05-29 08:32:34 51°14.891 2°52.678 20.2996 0.01041 0.057676 -1.731873
2008-05-29 08:32:39 51°14.893 2°52.651 20.2998 0.01041 0.057677 -1.766697
2008-05-29 08:32:45 51°14.897 2°52.619 20.3018 0.01041 0.057677 -1.766697
2008-05-29 08:32:49 51°14.9 2°52.597 20.3022 0.01041 0.057677 -1.731873
2008-05-29 08:32:54 51°14.903 2°52.57 20.2956 0.01041 0.057677 -1.731873
2008-05-29 08:32:59 51°14.905 2°52.543 20.3 0.01041 0.057677 -1.766697
2008-05-29 08:33:04 51°14.909 2°52.516 20.295 0.01041 0.057677 -1.731873
2008-05-29 08:33:09 51°14.912 2°52.489 20.2989 0.01041 0.057677 -1.766697
2008-05-29 08:33:14 51°14.916 2°52.462 20.3025 0.01041 0.057677 -1.766697
2008-05-29 08:33:19 51°14.919 2°52.435 20.305 0.01041 0.057677 -1.731873
2008-05-29 08:33:24 51°14.923 2°52.408 20.3013 0.01041 0.057677 -1.731873
2008-05-29 08:33:29 51°14.926 2°52.381 20.3016 0.01041 0.057678 -1.731873
2008-05-29 08:33:34 51°14.93 2°52.354 20.2995 0.01041 0.057678 -1.731873
2008-05-29 08:33:39 51°14.932 2°52.327 20.3058 0.01041 0.05768 -1.731873
2008-05-29 08:33:45 51°14.937 2°52.295 20.3055 0.01041 0.057679 -1.731873
2008-05-29 08:33:49 51°14.939 2°52.274 20.3029 0.01041 0.05768 -1.766697
2008-05-29 08:33:54 51°14.942 2°52.247 20.3044 0.01041 0.05768 -1.766697
2008-05-29 08:33:59 51°14.945 2°52.22 20.3027 0.01041 0.057679 -1.766697
2008-05-29 08:34:04 51°14.948 2°52.193 20.3032 0.01041 0.05768 -1.731873
2008-05-29 08:34:09 51°14.952 2°52.166 20.3038 0.01041 0.05768 -1.731873
2008-05-29 08:34:14 51°14.955 2°52.14 20.3052 0.01041 0.05768 -1.731873
2008-05-29 08:34:19 51°14.958 2°52.113 20.3064 0.01041 0.05768 -1.731873
2008-05-29 08:34:25 51°14.962 2°52.081 20.3059 0.01041 0.05768 -1.731873
2008-05-29 08:34:29 51°14.965 2°52.06 20.3055 0.01041 0.05768 -1.731873
2008-05-29 08:34:34 51°14.968 2°52.033 20.3057 0.01041 0.057681 -1.731873
2008-05-29 08:34:39 51°14.971 2°52.007 20.3071 0.01041 0.057681 -1.766697
2008-05-29 08:34:44 51°14.975 2°51.98 20.3055 0.01041 0.057682 -1.766697
2008-05-29 08:34:49 51°14.978 2°51.953 20.3096 0.01041 0.057681 -1.731873
2008-05-29 08:34:54 51°14.981 2°51.927 20.3035 0.01041 0.057681 -1.731873
2008-05-29 08:34:59 51°14.985 2°51.9 20.3069 0.01041 0.057682 -1.766697
2008-05-29 08:35:04 51°14.988 2°51.873 20.3035 0.01041 0.057682 -1.731873
2008-05-29 08:35:09 51°14.992 2°51.847 20.3074 0.01041 0.057682 -1.766697
2008-05-29 08:35:14 51°14.996 2°51.821 20.3097 0.01041 0.057682 -1.731873
2008-05-29 08:35:19 51°15 2°51.795 20.3104 0.01041 0.057682 -1.731873
2008-05-29 08:35:24 51°15.004 2°51.768 20.3101 0.01041 0.057682 -1.731873
2008-05-29 08:35:29 51°15.008 2°51.742 20.3085 0.01041 0.057682 -1.766697
2008-05-29 08:35:34 51°15.012 2°51.716 20.3047 0.01041 0.057684 -1.731873
2008-05-29 08:35:39 51°15.016 2°51.689 20.3113 0.01041 0.057684 -1.766697
2008-05-29 08:35:45 51°15.021 2°51.657 20.3106 0.01041 0.057684 -1.731873
2008-05-29 08:35:49 51°15.024 2°51.636 20.3126 0.01041 0.057684 -1.731873
2008-05-29 08:35:54 51°15.028 2°51.61 20.3062 0.01041 0.057684 -1.731873
2008-05-29 08:35:59 51°15.032 2°51.584 20.3124 0.01041 0.057685 -1.731873
2008-05-29 08:36:05 51°15.037 2°51.553 20.3141 0.01041 0.057685 -1.731873
2008-05-29 08:36:09 51°15.04 2°51.532 20.3142 0.01041 0.057685 -1.766697
2008-05-29 08:36:14 51°15.044 2°51.505 20.3167 0.01041 0.057686 -1.731873
2008-05-29 08:36:19 51°15.047 2°51.479 20.3125 0.01041 0.057686 -1.731873
2008-05-29 08:36:24 51°15.05 2°51.453 20.3177 0.01041 0.057686 -1.731873
2008-05-29 08:36:29 51°15.054 2°51.426 20.3166 0.01041 0.057686 -1.731873
2008-05-29 08:36:34 51°15.057 2°51.4 20.3163 0.01041 0.057687 -1.731873
2008-05-29 08:36:39 51°15.061 2°51.374 20.3135 0.01041 0.057687 -1.731873
2008-05-29 08:36:45 51°15.065 2°51.343 20.3107 0.01041 0.057687 -1.731873
2008-05-29 08:36:49 51°15.068 2°51.322 20.3079 0.01041 0.057687 -1.731873
2008-05-29 08:36:54 51°15.072 2°51.296 20.3152 0.01041 0.057687 -1.731873
2008-05-29 08:36:59 51°15.076 2°51.27 20.3175 0.01041 0.057687 -1.766697
2008-05-29 08:37:05 51°15.082 2°51.239 20.3133 0.01041 0.057687 -1.731873
2008-05-29 08:37:09 51°15.085 2°51.218 20.316 0.01041 0.057689 -1.766697
2008-05-29 08:37:14 51°15.089 2°51.191 20.3243 0.01041 0.057687 -1.731873
2008-05-29 08:37:19 51°15.094 2°51.165 20.3164 0.01041 0.057689 -1.766697
2008-05-29 08:37:24 51°15.098 2°51.139 20.3157 0.01041 0.057689 -1.766697
2008-05-29 08:37:29 51°15.102 2°51.113 20.3193 0.01041 0.05769 -1.731873
2008-05-29 08:37:34 51°15.107 2°51.087 20.3201 0.01041 0.057689 -1.766697
2008-05-29 08:37:39 51°15.112 2°51.061 20.32 0.01041 0.05769 -1.731873
2008-05-29 08:37:44 51°15.117 2°51.035 20.3203 0.01041 0.05769 -1.731873
2008-05-29 08:37:49 51°15.121 2°51.009 20.3203 0.01041 0.05769 -1.731873
2008-05-29 08:37:54 51°15.126 2°50.983 20.322 0.01041 0.05769 -1.731873
2008-05-29 08:37:59 51°15.131 2°50.957 20.322 0.01041 0.057691 -1.731873
2008-05-29 08:38:05 51°15.137 2°50.926 20.3242 0.01041 0.057692 -1.731873
2008-05-29 08:38:09 51°15.14 2°50.905 20.3255 0.01041 0.057692 -1.731873
2008-05-29 08:38:14 51°15.145 2°50.879 20.3209 0.01041 0.057692 -1.731873
2008-05-29 08:38:19 51°15.149 2°50.853 20.3269 0.01041 0.057693 -1.731873
2008-05-29 08:38:25 51°15.154 2°50.822 20.326 0.01041 0.057693 -1.731873
2008-05-29 08:38:29 51°15.158 2°50.801 20.3232 0.01041 0.057693 -1.731873
2008-05-29 08:38:34 51°15.161 2°50.774 20.3272 0.01041 0.057694 -1.731873
2008-05-29 08:38:39 51°15.166 2°50.748 20.3262 0.01041 0.057694 -1.731873
2008-05-29 08:38:45 51°15.17 2°50.716 20.3306 0.01041 0.057694 -1.731873
2008-05-29 08:38:49 51°15.175 2°50.695 20.3203 0.01041 0.057695 -1.731873
2008-05-29 08:38:54 51°15.179 2°50.669 20.3245 0.01041 0.057695 -1.731873
2008-05-29 08:38:59 51°15.184 2°50.643 20.3259 0.01041 0.057695 -1.731873
2008-05-29 08:39:05 51°15.189 2°50.612 20.3297 0.01041 0.057697 -1.731873
2008-05-29 08:39:09 51°15.193 2°50.591 20.3261 0.01041 0.057697 -1.731873
2008-05-29 08:39:14 51°15.198 2°50.565 20.3343 0.01041 0.057697 -1.731873
2008-05-29 08:39:19 51°15.202 2°50.539 20.3296 0.01041 0.057698 -1.766697
2008-05-29 08:39:25 51°15.207 2°50.507 20.3292 0.01041 0.057698 -1.766697
2008-05-29 08:39:29 51°15.211 2°50.486 20.3281 0.01041 0.057698 -1.766697
2008-05-29 08:39:34 51°15.215 2°50.46 20.3299 0.01041 0.057699 -1.766697
2008-05-29 08:39:39 51°15.219 2°50.434 20.3309 0.01041 0.057698 -1.731873
2008-05-29 08:39:44 51°15.224 2°50.408 20.3329 0.01041 0.057699 -1.731873
2008-05-29 08:39:49 51°15.228 2°50.382 20.3291 0.01041 0.057699 -1.731873
2008-05-29 08:39:54 51°15.233 2°50.356 20.3318 0.01041 0.057699 -1.731873
2008-05-29 08:39:59 51°15.237 2°50.33 20.332 0.01041 0.0577 -1.766697
2008-05-29 08:40:04 51°15.242 2°50.304 20.3293 0.01041 0.0577 -1.731873
2008-05-29 08:40:09 51°15.247 2°50.278 20.3343 0.01041 0.0577 -1.731873
2008-05-29 08:40:14 51°15.251 2°50.252 20.3315 0.01041 0.0577 -1.731873
2008-05-29 08:40:19 51°15.255 2°50.225 20.3348 0.01041 0.0577 -1.731873
2008-05-29 08:40:24 51°15.259 2°50.199 20.3349 0.01041 0.0577 -1.731873
2008-05-29 08:40:29 51°15.263 2°50.172 20.338 0.01041 0.057701 -1.766697
2008-05-29 08:40:34 51°15.266 2°50.145 20.3339 0.01041 0.057701 -1.766697
2008-05-29 08:40:39 51°15.27 2°50.119 20.3306 0.01041 0.057703 -1.766697
2008-05-29 08:40:45 51°15.275 2°50.087 20.3336 0.01041 0.057702 -1.731873
2008-05-29 08:40:49 51°15.279 2°50.066 20.3362 0.01041 0.057702 -1.766697
2008-05-29 08:40:54 51°15.283 2°50.039 20.3375 0.01041 0.057702 -1.766697
2008-05-29 08:40:59 51°15.287 2°50.012 20.3353 0.01041 0.057703 -1.766697
2008-05-29 08:41:05 51°15.291 2°49.98 20.3365 0.01041 0.057703 -1.766697
2008-05-29 08:41:09 51°15.295 2°49.959 20.3371 0.010101 0.056144 -1.731873
2008-05-29 08:41:14 51°15.298 2°49.932 20.3363 0.01041 0.057704 -1.731873
2008-05-29 08:41:19 51°15.302 2°49.906 20.3397 0.01041 0.057703 -1.731873
2008-05-29 08:41:24 51°15.306 2°49.879 20.3307 0.01041 0.057703 -1.731873
2008-05-29 08:41:29 51°15.31 2°49.852 20.3353 0.01041 0.057705 -1.731873
2008-05-29 08:41:34 51°15.314 2°49.826 20.338 0.01041 0.057705 -1.731873
2008-05-29 08:41:39 51°15.318 2°49.799 20.3377 0.01041 0.057704 -1.766697
2008-05-29 08:41:44 51°15.323 2°49.772 20.3419 0.01041 0.057705 -1.766697
2008-05-29 08:41:49 51°15.327 2°49.746 20.3395 0.01041 0.057705 -1.766697
2008-05-29 08:41:54 51°15.331 2°49.719 20.3447 0.01041 0.057705 -1.766697
2008-05-29 08:41:59 51°15.336 2°49.693 20.3388 0.009792 0.05459 -1.766697
2008-05-29 08:42:04 51°15.34 2°49.667 20.3386 0.01041 0.057706 -1.731873
2008-05-29 08:42:09 51°15.344 2°49.64 20.3379 0.01041 0.057707 -1.731873
2008-05-29 08:42:14 51°15.348 2°49.614 20.3431 0.01041 0.057707 -1.766697
2008-05-29 08:42:19 51°15.353 2°49.588 20.3351 0.01041 0.057707 -1.731873
2008-05-29 08:42:25 51°15.359 2°49.556 20.3474 0.01041 0.057707 -1.731873
2008-05-29 08:42:29 51°15.363 2°49.536 20.3383 0.01041 0.057706 -1.731873
2008-05-29 08:42:34 51°15.368 2°49.509 20.339 0.01041 0.057708 -1.766697
2008-05-29 08:42:39 51°15.373 2°49.483 20.3447 0.01041 0.057708 -1.731873
2008-05-29 08:42:44 51°15.378 2°49.457 20.3462 0.01041 0.057708 -1.731873
2008-05-29 08:42:49 51°15.384 2°49.431 20.3481 0.01041 0.057709 -1.766697
2008-05-29 08:42:54 51°15.389 2°49.405 20.3493 0.01041 0.057709 -1.766697
2008-05-29 08:42:59 51°15.393 2°49.379 20.3469 0.01041 0.05771 -1.731873
2008-05-29 08:43:05 51°15.399 2°49.347 20.3453 0.01041 0.05771 -1.731873
2008-05-29 08:43:09 51°15.403 2°49.326 20.3441 0.01041 0.05771 -1.731873
2008-05-29 08:43:14 51°15.408 2°49.3 20.3459 0.01041 0.05771 -1.766697
2008-05-29 08:43:19 51°15.412 2°49.274 20.3497 0.01041 0.05771 -1.731873
2008-05-29 08:43:25 51°15.418 2°49.243 20.3422 0.01041 0.05771 -1.731873
2008-05-29 08:43:29 51°15.422 2°49.222 20.3465 0.01041 0.057711 -1.731873
2008-05-29 08:43:34 51°15.427 2°49.196 20.3495 0.01041 0.057711 -1.731873
2008-05-29 08:43:39 51°15.432 2°49.17 20.3477 0.01041 0.057712 -1.731873
2008-05-29 08:43:44 51°15.437 2°49.145 20.3439 0.01041 0.057713 -1.766697
2008-05-29 08:43:49 51°15.441 2°49.118 20.35 0.01041 0.057713 -1.731873
2008-05-29 08:43:54 51°15.446 2°49.092 20.3479 0.01041 0.057713 -1.731873
2008-05-29 08:43:59 51°15.451 2°49.066 20.3497 0.010101 0.056153 -1.766697
2008-05-29 08:44:04 51°15.456 2°49.04 20.3524 0.01041 0.057713 -1.766697
2008-05-29 08:44:09 51°15.462 2°49.015 20.352 0.01041 0.057713 -1.766697
2008-05-29 08:44:14 51°15.466 2°48.988 20.3545 0.01041 0.057714 -1.731873
2008-05-29 08:44:19 51°15.472 2°48.962 20.3479 0.01041 0.057715 -1.766697
2008-05-29 08:44:25 51°15.478 2°48.931 20.3518 0.01041 0.057715 -1.766697
2008-05-29 08:44:29 51°15.483 2°48.911 20.3485 0.01041 0.057714 -1.766697
2008-05-29 08:44:34 51°15.488 2°48.885 20.3521 0.01041 0.057715 -1.731873
2008-05-29 08:44:39 51°15.493 2°48.859 20.3536 0.01041 0.057715 -1.731873
2008-05-29 08:44:45 51°15.5 2°48.828 20.3536 0.01041 0.057715 -1.731873
2008-05-29 08:44:49 51°15.504 2°48.807 20.3537 0.01041 0.057716 -1.731873
2008-05-29 08:44:54 51°15.51 2°48.782 20.3553 0.01041 0.057716 -1.731873
2008-05-29 08:44:59 51°15.516 2°48.756 20.3562 0.01041 0.057717 -1.731873
2008-05-29 08:45:04 51°15.522 2°48.73 20.3554 0.01041 0.057717 -1.731873
2008-05-29 08:45:09 51°15.527 2°48.704 20.3543 0.01041 0.057718 -1.731873
2008-05-29 08:45:14 51°15.533 2°48.678 20.3508 0.01041 0.057718 -1.731873
2008-05-29 08:45:19 51°15.538 2°48.652 20.3555 0.01041 0.057718 -1.766697
2008-05-29 08:45:24 51°15.544 2°48.626 20.3607 0.01041 0.057718 -1.766697
2008-05-29 08:45:29 51°15.55 2°48.6 20.3597 0.01041 0.057718 -1.731873
2008-05-29 08:45:34 51°15.555 2°48.575 20.3596 0.01041 0.057719 -1.766697
2008-05-29 08:45:39 51°15.561 2°48.549 20.3606 0.01041 0.05772 -1.731873
2008-05-29 08:45:45 51°15.568 2°48.517 20.3626 0.01041 0.057721 -1.731873
2008-05-29 08:45:49 51°15.572 2°48.496 20.3623 0.01041 0.057721 -1.766697
2008-05-29 08:45:54 51°15.577 2°48.47 20.3638 0.01041 0.057721 -1.766697
2008-05-29 08:45:59 51°15.583 2°48.444 20.3604 0.01041 0.057721 -1.731873
2008-05-29 08:46:04 51°15.588 2°48.418 20.3635 0.01041 0.057722 -1.731873
2008-05-29 08:46:09 51°15.594 2°48.392 20.3617 0.01041 0.057722 -1.731873
2008-05-29 08:46:14 51°15.599 2°48.366 20.3572 0.01041 0.057723 -1.731873
2008-05-29 08:46:19 51°15.605 2°48.339 20.3582 0.01041 0.057723 -1.766697
2008-05-29 08:46:25 51°15.611 2°48.308 20.3654 0.01041 0.057723 -1.766697
2008-05-29 08:46:29 51°15.616 2°48.288 20.3615 0.01041 0.057723 -1.766697
2008-05-29 08:46:34 51°15.621 2°48.261 20.3601 0.01041 0.057724 -1.766697
2008-05-29 08:46:39 51°15.626 2°48.235 20.3645 0.01041 0.057724 -1.731873
2008-05-29 08:46:44 51°15.632 2°48.21 20.3603 0.01041 0.057725 -1.766697
2008-05-29 08:46:49 51°15.637 2°48.184 20.3647 0.01041 0.057725 -1.766697
2008-05-29 08:46:54 51°15.642 2°48.158 20.3642 0.01041 0.057725 -1.766697
2008-05-29 08:46:59 51°15.648 2°48.132 20.3623 0.010307 0.057205 -1.766697
2008-05-29 08:47:05 51°15.655 2°48.101 20.3677 0.01041 0.057726 -1.731873
2008-05-29 08:47:09 51°15.659 2°48.081 20.3651 0.01041 0.057726 -1.731873
2008-05-29 08:47:14 51°15.665 2°48.055 20.3678 0.01041 0.057726 -1.731873
2008-05-29 08:47:20 51°15.671 2°48.024 20.3678 0.01041 0.057727 -1.731873
2008-05-29 08:47:25 51°15.677 2°47.998 20.3683 0.01041 0.057727 -1.731873
2008-05-29 08:47:29 51°15.681 2°47.978 20.3688 0.01041 0.057727 -1.731873
2008-05-29 08:47:34 51°15.686 2°47.952 20.3723 0.01041 0.057728 -1.731873
2008-05-29 08:47:39 51°15.692 2°47.927 20.367 0.01041 0.057728 -1.731873
2008-05-29 08:47:44 51°15.697 2°47.901 20.3667 0.01041 0.057728 -1.731873
2008-05-29 08:47:49 51°15.702 2°47.876 20.3704 0.01041 0.057729 -1.731873
2008-05-29 08:47:54 51°15.707 2°47.85 20.3698 0.01041 0.057729 -1.731873
2008-05-29 08:47:59 51°15.713 2°47.824 20.3667 0.01041 0.05773 -1.731873
2008-05-29 08:48:05 51°15.719 2°47.794 20.3721 0.010307 0.057209 -1.766697
2008-05-29 08:48:09 51°15.723 2°47.774 20.3744 0.01041 0.05773 -1.731873
2008-05-29 08:48:14 51°15.729 2°47.748 20.3749 0.010307 0.05721 -1.731873
2008-05-29 08:48:19 51°15.734 2°47.723 20.366 0.01041 0.057731 -1.731873
2008-05-29 08:48:25 51°15.741 2°47.692 20.3732 0.01041 0.057731 -1.731873
2008-05-29 08:48:29 51°15.746 2°47.672 20.3694 0.01041 0.057731 -1.731873
2008-05-29 08:48:34 51°15.752 2°47.647 20.3742 0.010307 0.057212 -1.731873
2008-05-29 08:48:39 51°15.758 2°47.622 20.3722 0.01041 0.057732 -1.731873
2008-05-29 08:48:44 51°15.764 2°47.597 20.3712 0.01041 0.057733 -1.731873
2008-05-29 08:48:49 51°15.771 2°47.572 20.3729 0.010307 0.057212 -1.731873
2008-05-29 08:48:54 51°15.777 2°47.547 20.3689 0.010307 0.057212 -1.731873
2008-05-29 08:48:59 51°15.784 2°47.522 20.376 0.010307 0.057214 -1.731873
2008-05-29 08:49:04 51°15.791 2°47.497 20.3772 0.01041 0.057734 -1.731873
2008-05-29 08:49:09 51°15.797 2°47.472 20.3761 0.01041 0.057735 -1.731873
2008-05-29 08:49:14 51°15.803 2°47.447 20.3767 0.010307 0.057215 -1.731873
2008-05-29 08:49:19 51°15.81 2°47.421 20.3773 0.010307 0.057216 -1.731873
2008-05-29 08:49:24 51°15.816 2°47.396 20.3785 0.010307 0.057216 -1.731873
2008-05-29 08:49:29 51°15.822 2°47.371 20.3793 0.01041 0.057737 -1.731873
2008-05-29 08:49:34 51°15.829 2°47.346 20.383 0.010307 0.057217 -1.731873
2008-05-29 08:49:39 51°15.835 2°47.321 20.3787 0.010307 0.057218 -1.731873
2008-05-29 08:49:45 51°15.843 2°47.291 20.3797 0.010307 0.057218 -1.731873
2008-05-29 08:49:49 51°15.847 2°47.271 20.3852 0.01041 0.057739 -1.766697
2008-05-29 08:49:54 51°15.853 2°47.246 20.3816 0.01041 0.057739 -1.766697
2008-05-29 08:49:59 51°15.859 2°47.22 20.3768 0.010307 0.057219 -1.731873
2008-05-29 08:50:05 51°15.866 2°47.19 20.3829 0.010307 0.05722 -1.731873
2008-05-29 08:50:09 51°15.871 2°47.169 20.3835 0.01041 0.057741 -1.766697
2008-05-29 08:50:14 51°15.877 2°47.144 20.3813 0.01041 0.057741 -1.731873
2008-05-29 08:50:19 51°15.883 2°47.119 20.3831 0.010307 0.057222 -1.731873
2008-05-29 08:50:25 51°15.89 2°47.089 20.3848 0.010307 0.057222 -1.731873
2008-05-29 08:50:29 51°15.894 2°47.069 20.386 0.009998 0.055662 -1.766697
2008-05-29 08:50:34 51°15.901 2°47.044 20.3868 0.010307 0.057222 -1.731873
2008-05-29 08:50:39 51°15.906 2°47.018 20.3868 0.010307 0.057222 -1.766697
2008-05-29 08:50:45 51°15.913 2°46.988 20.3846 0.010307 0.057224 -1.766697
2008-05-29 08:50:49 51°15.918 2°46.968 20.3814 0.010307 0.057224 -1.731873
2008-05-29 08:50:54 51°15.923 2°46.943 20.3825 0.010307 0.057224 -1.731873
2008-05-29 08:50:59 51°15.93 2°46.918 20.3825 0.01041 0.057744 -1.731873
2008-05-29 08:51:04 51°15.936 2°46.893 20.3875 0.010101 0.056184 -1.731873
2008-05-29 08:51:09 51°15.943 2°46.868 20.3828 0.010307 0.057224 -1.766697
2008-05-29 08:51:14 51°15.949 2°46.844 20.3919 0.010307 0.057225 -1.766697
2008-05-29 08:51:19 51°15.956 2°46.819 20.3922 0.010307 0.057226 -1.731873
2008-05-29 08:51:24 51°15.963 2°46.795 20.3862 0.010307 0.057226 -1.731873
2008-05-29 08:51:29 51°15.969 2°46.77 20.3919 0.010307 0.057227 -1.731873
2008-05-29 08:51:34 51°15.977 2°46.746 20.3928 0.010307 0.057227 -1.766697
2008-05-29 08:51:39 51°15.983 2°46.721 20.3865 0.01041 0.057749 -1.731873
2008-05-29 08:51:44 51°15.99 2°46.696 20.3911 0.010307 0.057229 -1.731873
2008-05-29 08:51:49 51°15.996 2°46.672 20.3912 0.010307 0.057229 -1.731873
2008-05-29 08:51:54 51°16.004 2°46.647 20.3956 0.010307 0.057229 -1.731873
2008-05-29 08:51:59 51°16.01 2°46.623 20.3921 0.010307 0.05723 -1.766697
2008-05-29 08:52:05 51°16.019 2°46.594 20.392 0.010307 0.05723 -1.731873
2008-05-29 08:52:09 51°16.024 2°46.574 20.3931 0.010307 0.057231 -1.731873
2008-05-29 08:52:14 51°16.031 2°46.55 20.399 0.010307 0.057231 -1.731873
2008-05-29 08:52:19 51°16.038 2°46.525 20.3907 0.010307 0.057232 -1.766697
2008-05-29 08:52:25 51°16.047 2°46.496 20.393 0.010307 0.057232 -1.766697
2008-05-29 08:52:29 51°16.052 2°46.476 20.3904 0.010307 0.057232 -1.731873
2008-05-29 08:52:34 51°16.058 2°46.452 20.3935 0.010307 0.057233 -1.731873
2008-05-29 08:52:39 51°16.065 2°46.427 20.393 0.010307 0.057233 -1.731873
2008-05-29 08:52:45 51°16.074 2°46.398 20.3959 0.010307 0.057234 -1.731873
2008-05-29 08:52:49 51°16.079 2°46.378 20.3974 0.010307 0.057234 -1.731873
2008-05-29 08:52:54 51°16.086 2°46.354 20.3987 0.010307 0.057234 -1.731873
2008-05-29 08:52:59 51°16.093 2°46.33 20.3944 0.010307 0.057234 -1.731873
2008-05-29 08:53:04 51°16.1 2°46.305 20.3961 0.010307 0.057236 -1.766697
2008-05-29 08:53:09 51°16.107 2°46.281 20.398 0.010307 0.057236 -1.731873
2008-05-29 08:53:14 51°16.114 2°46.256 20.3999 0.010307 0.057236 -1.766697
2008-05-29 08:53:19 51°16.121 2°46.232 20.3943 0.010307 0.057237 -1.731873
2008-05-29 08:53:25 51°16.13 2°46.203 20.4005 0.010307 0.057237 -1.731873
2008-05-29 08:53:29 51°16.136 2°46.183 20.3943 0.010307 0.057237 -1.766697
2008-05-29 08:53:34 51°16.143 2°46.159 20.4014 0.010307 0.057238 -1.731873
2008-05-29 08:53:39 51°16.151 2°46.135 20.3981 0.010307 0.057239 -1.731873
2008-05-29 08:53:44 51°16.159 2°46.111 20.4005 0.010307 0.057239 -1.731873
2008-05-29 08:53:49 51°16.166 2°46.087 20.4019 0.009792 0.054641 -1.731873
2008-05-29 08:53:54 51°16.175 2°46.063 20.402 0.009792 0.054641 -1.731873
2008-05-29 08:53:59 51°16.182 2°46.039 20.399 0.010307 0.05724 -1.731873
2008-05-29 08:54:04 51°16.19 2°46.015 20.4 0.010307 0.057241 -1.731873
2008-05-29 08:54:09 51°16.198 2°45.991 20.3982 0.010307 0.057241 -1.731873
2008-05-29 08:54:14 51°16.206 2°45.967 20.4059 0.010307 0.057242 -1.731873
2008-05-29 08:54:19 51°16.214 2°45.942 20.4003 0.010307 0.057243 -1.731873
2008-05-29 08:54:25 51°16.223 2°45.914 20.4062 0.010307 0.057243 -1.731873
2008-05-29 08:54:29 51°16.229 2°45.894 20.4023 0.010307 0.057244 -1.731873
2008-05-29 08:54:34 51°16.237 2°45.87 20.4058 0.010307 0.057244 -1.731873
2008-05-29 08:54:39 51°16.245 2°45.845 20.4074 0.010307 0.057245 -1.731873
2008-05-29 08:54:44 51°16.253 2°45.821 20.3998 0.010307 0.057245 -1.731873
2008-05-29 08:54:49 51°16.261 2°45.797 20.4054 0.010307 0.057246 -1.731873
2008-05-29 08:54:54 51°16.268 2°45.772 20.4063 0.010307 0.057246 -1.731873
2008-05-29 08:54:59 51°16.276 2°45.748 20.4084 0.010307 0.057246 -1.766697
2008-05-29 08:55:05 51°16.285 2°45.719 20.4073 0.010307 0.057246 -1.766697
2008-05-29 08:55:09 51°16.291 2°45.699 20.4078 0.010307 0.057247 -1.731873
2008-05-29 08:55:14 51°16.299 2°45.675 20.4059 0.010307 0.057248 -1.731873
2008-05-29 08:55:19 51°16.306 2°45.65 20.407 0.010307 0.057248 -1.766697
2008-05-29 08:55:24 51°16.314 2°45.626 20.4099 0.010307 0.057248 -1.766697
2008-05-29 08:55:29 51°16.322 2°45.601 20.406 0.010307 0.057249 -1.731873
2008-05-29 08:55:34 51°16.329 2°45.576 20.4095 0.010307 0.057249 -1.731873
2008-05-29 08:55:39 51°16.337 2°45.552 20.412 0.010307 0.05725 -1.766697
2008-05-29 08:55:44 51°16.345 2°45.528 20.4055 0.010307 0.05725 -1.731873
2008-05-29 08:55:49 51°16.352 2°45.503 20.4032 0.010307 0.057251 -1.731873
2008-05-29 08:55:54 51°16.36 2°45.479 20.41 0.010307 0.057251 -1.731873
2008-05-29 08:55:59 51°16.368 2°45.454 20.4128 0.010307 0.057251 -1.766697
2008-05-29 08:56:04 51°16.377 2°45.43 20.4108 0.010307 0.057251 -1.731873
2008-05-29 08:56:09 51°16.384 2°45.405 20.4105 0.010307 0.057251 -1.731873
2008-05-29 08:56:14 51°16.392 2°45.381 20.4077 0.010307 0.057252 -1.731873
2008-05-29 08:56:19 51°16.401 2°45.357 20.4112 0.010307 0.057252 -1.731873
2008-05-29 08:56:25 51°16.411 2°45.327 20.4127 0.010307 0.057252 -1.731873
2008-05-29 08:56:29 51°16.418 2°45.308 20.4129 0.010307 0.057254 -1.731873
2008-05-29 08:56:34 51°16.427 2°45.284 20.4118 0.010307 0.057254 -1.766697
2008-05-29 08:56:39 51°16.435 2°45.26 20.4172 0.010307 0.057254 -1.731873
2008-05-29 08:56:44 51°16.444 2°45.236 20.4172 0.010307 0.057256 -1.766697
2008-05-29 08:56:49 51°16.453 2°45.212 20.4148 0.010307 0.057256 -1.766697
2008-05-29 08:56:54 51°16.461 2°45.188 20.4091 0.010307 0.057256 -1.766697
2008-05-29 08:57:00 51°16.472 2°45.159 20.413 0.010307 0.057257 -1.766697
2008-05-29 08:57:05 51°16.48 2°45.134 20.4173 0.010307 0.057258 -1.766697
2008-05-29 08:57:09 51°16.487 2°45.115 20.4156 0.010307 0.057258 -1.731873
2008-05-29 08:57:14 51°16.496 2°45.09 20.4188 0.010307 0.057259 -1.731873
2008-05-29 08:57:19 51°16.504 2°45.066 20.4187 0.010307 0.057259 -1.731873
2008-05-29 08:57:24 51°16.513 2°45.042 20.42 0.010307 0.057259 -1.731873
2008-05-29 08:57:29 51°16.521 2°45.017 20.4191 0.010307 0.05726 -1.731873
2008-05-29 08:57:34 51°16.529 2°44.993 20.4214 0.010307 0.057261 -1.731873
2008-05-29 08:57:39 51°16.537 2°44.968 20.4222 0.010307 0.057262 -1.731873
2008-05-29 08:57:44 51°16.545 2°44.943 20.4202 0.004853 0.03025 -1.731873
2008-05-29 08:57:49 51°16.552 2°44.918 20.4221 0.010307 0.057263 -1.731873
2008-05-29 08:57:54 51°16.56 2°44.893 20.4136 0.010307 0.057263 -1.731873
2008-05-29 08:57:59 51°16.567 2°44.868 20.4188 0.010307 0.057264 -1.766697
2008-05-29 08:58:04 51°16.575 2°44.843 20.4193 0.010307 0.057264 -1.766697
2008-05-29 08:58:09 51°16.583 2°44.818 20.416 0.010307 0.057266 -1.766697
2008-05-29 08:58:14 51°16.592 2°44.794 20.4207 0.010307 0.057266 -1.731873
2008-05-29 08:58:19 51°16.6 2°44.769 20.4213 0.010307 0.057268 -1.731873
2008-05-29 08:58:25 51°16.611 2°44.74 20.4178 0.010307 0.057268 -1.731873
2008-05-29 08:58:29 51°16.617 2°44.721 20.4221 0.010307 0.057269 -1.731873
2008-05-29 08:58:34 51°16.626 2°44.696 20.4199 0.010307 0.05727 -1.731873
2008-05-29 08:58:39 51°16.634 2°44.672 20.4204 0.010307 0.057271 -1.731873
2008-05-29 08:58:44 51°16.643 2°44.647 20.4235 0.010307 0.057272 -1.731873
2008-05-29 08:58:49 51°16.651 2°44.623 20.4257 0.010307 0.057273 -1.766697
2008-05-29 08:58:54 51°16.66 2°44.598 20.4266 0.010307 0.057273 -1.766697
2008-05-29 08:59:00 51°16.67 2°44.569 20.4256 0.010307 0.057274 -1.731873
2008-05-29 08:59:05 51°16.679 2°44.545 20.423 0.010307 0.057275 -1.731873
2008-05-29 08:59:09 51°16.686 2°44.525 20.4246 0.010307 0.057276 -1.766697
2008-05-29 08:59:14 51°16.694 2°44.501 20.4289 0.010307 0.057277 -1.731873
2008-05-29 08:59:19 51°16.702 2°44.476 20.4289 0.010307 0.057278 -1.766697
2008-05-29 08:59:25 51°16.712 2°44.447 20.4283 0.010307 0.057278 -1.766697
2008-05-29 08:59:29 51°16.719 2°44.427 20.4258 0.010307 0.057278 -1.731873
2008-05-29 08:59:34 51°16.727 2°44.403 20.4283 0.010307 0.05728 -1.731873
2008-05-29 08:59:39 51°16.736 2°44.378 20.4315 0.010307 0.057281 -1.731873
2008-05-29 08:59:45 51°16.746 2°44.349 20.4253 0.010307 0.057282 -1.731873
2008-05-29 08:59:49 51°16.752 2°44.329 20.4287 0.010307 0.057283 -1.731873
2008-05-29 08:59:54 51°16.761 2°44.305 20.4288 0.010307 0.057283 -1.731873
2008-05-29 08:59:59 51°16.769 2°44.28 20.4323 0.010307 0.057283 -1.731873
2008-05-29 09:00:04 51°16.778 2°44.256 20.4306 0.010307 0.057284 -1.766697
2008-05-29 09:00:09 51°16.785 2°44.231 20.4298 0.010307 0.057286 -1.731873
2008-05-29 09:00:14 51°16.793 2°44.207 20.4325 0.010307 0.057286 -1.731873
2008-05-29 09:00:19 51°16.8 2°44.182 20.433 0.010307 0.057287 -1.766697
2008-05-29 09:00:25 51°16.809 2°44.152 20.432 0.010307 0.057287 -1.766697
2008-05-29 09:00:29 51°16.815 2°44.132 20.4349 0.010307 0.057288 -1.731873
2008-05-29 09:00:34 51°16.823 2°44.107 20.4338 0.010307 0.057289 -1.731873
2008-05-29 09:00:39 51°16.83 2°44.082 20.426 0.010307 0.05729 -1.766697
2008-05-29 09:00:44 51°16.838 2°44.057 20.432 0.010307 0.05729 -1.731873
2008-05-29 09:00:49 51°16.845 2°44.032 20.4264 0.010307 0.057291 -1.731873
2008-05-29 09:00:54 51°16.853 2°44.007 20.4276 0.010307 0.057291 -1.731873
2008-05-29 09:01:00 51°16.862 2°43.977 20.4341 0.010307 0.057292 -1.731873
2008-05-29 09:01:05 51°16.87 2°43.953 20.4286 0.010307 0.057292 -1.731873
2008-05-29 09:01:09 51°16.876 2°43.933 20.4299 0.010307 0.057293 -1.766697
2008-05-29 09:01:14 51°16.885 2°43.91 20.4325 0.010307 0.057293 -1.731873
2008-05-29 09:01:19 51°16.894 2°43.886 20.4302 0.010307 0.057296 -1.731873
2008-05-29 09:01:25 51°16.905 2°43.858 20.4362 0.010307 0.057296 -1.731873
2008-05-29 09:01:29 51°16.913 2°43.84 20.4367 0.010307 0.057296 -1.731873
2008-05-29 09:01:34 51°16.923 2°43.817 20.435 0.010307 0.057297 -1.731873
2008-05-29 09:01:39 51°16.933 2°43.795 20.4315 0.010307 0.057298 -1.731873
2008-05-29 09:01:45 51°16.945 2°43.768 20.4387 0.010307 0.057299 -1.766697
2008-05-29 09:01:49 51°16.953 2°43.75 20.4368 0.010307 0.057301 -1.766697
2008-05-29 09:01:54 51°16.964 2°43.728 20.4388 0.010307 0.057301 -1.766697
2008-05-29 09:01:59 51°16.974 2°43.706 20.4376 0.010307 0.057301 -1.731873
2008-05-29 09:02:04 51°16.985 2°43.684 20.4397 0.010307 0.057303 -1.731873
2008-05-29 09:02:09 51°16.995 2°43.661 20.4394 0.010307 0.057303 -1.766697
2008-05-29 09:02:14 51°17.006 2°43.639 20.4346 0.010307 0.057305 -1.766697
2008-05-29 09:02:19 51°17.016 2°43.617 20.4386 0.010307 0.057306 -1.766697
2008-05-29 09:02:25 51°17.029 2°43.59 20.4394 0.010307 0.057306 -1.766697
2008-05-29 09:02:29 51°17.037 2°43.572 20.4389 0.010307 0.057307 -1.731873
2008-05-29 09:02:34 51°17.048 2°43.55 20.4423 0.010307 0.057308 -1.731873
2008-05-29 09:02:39 51°17.059 2°43.528 20.4437 0.010307 0.057309 -1.731873
2008-05-29 09:02:44 51°17.069 2°43.506 20.4439 0.010307 0.057311 -1.731873
2008-05-29 09:02:49 51°17.08 2°43.484 20.4393 0.00969 0.054188 -1.766697
2008-05-29 09:02:54 51°17.09 2°43.461 20.4429 0.00969 0.054188 -1.766697
2008-05-29 09:02:59 51°17.101 2°43.439 20.4413 0.010307 0.057313 -1.731873
2008-05-29 09:03:04 51°17.111 2°43.417 20.4459 0.010307 0.057314 -1.731873
2008-05-29 09:03:09 51°17.121 2°43.395 20.4429 0.010307 0.057315 -1.766697
2008-05-29 09:03:14 51°17.132 2°43.373 20.4478 0.010307 0.057316 -1.731873
2008-05-29 09:03:19 51°17.142 2°43.35 20.442 0.010307 0.057318 -1.731873
2008-05-29 09:03:25 51°17.154 2°43.324 20.4428 0.010307 0.057318 -1.731873
2008-05-29 09:03:29 51°17.163 2°43.306 20.4399 0.010307 0.057318 -1.731873
2008-05-29 09:03:34 51°17.173 2°43.284 20.4455 0.010307 0.057319 -1.731873
2008-05-29 09:03:39 51°17.183 2°43.261 20.4448 0.010307 0.057321 -1.731873
2008-05-29 09:03:44 51°17.194 2°43.239 20.4454 0.010307 0.057322 -1.731873
2008-05-29 09:03:49 51°17.204 2°43.217 20.4456 0.010307 0.057323 -1.731873
2008-05-29 09:03:54 51°17.215 2°43.195 20.4485 0.010307 0.057323 -1.731873
2008-05-29 09:03:59 51°17.225 2°43.173 20.4457 0.010307 0.057323 -1.731873
2008-05-29 09:04:05 51°17.237 2°43.146 20.4507 0.010307 0.057325 -1.731873
2008-05-29 09:04:09 51°17.246 2°43.128 20.4465 0.010307 0.057326 -1.766697
2008-05-29 09:04:14 51°17.256 2°43.107 20.4443 0.010307 0.057328 -1.731873
2008-05-29 09:04:19 51°17.266 2°43.084 20.4451 0.010307 0.057328 -1.731873
2008-05-29 09:04:25 51°17.279 2°43.058 20.4504 0.010307 0.057328 -1.731873
2008-05-29 09:04:29 51°17.288 2°43.041 20.4446 0.010307 0.057328 -1.731873
2008-05-29 09:04:34 51°17.298 2°43.019 20.448 0.010307 0.057331 -1.731873
2008-05-29 09:04:39 51°17.309 2°42.997 20.4514 0.010307 0.057331 -1.731873
2008-05-29 09:04:44 51°17.319 2°42.975 20.4546 0.010307 0.057332 -1.731873
2008-05-29 09:04:49 51°17.33 2°42.954 20.4471 0.010307 0.057333 -1.766697
2008-05-29 09:04:54 51°17.34 2°42.932 20.4497 0.010307 0.057333 -1.766697
2008-05-29 09:04:59 51°17.351 2°42.91 20.4525 0.010307 0.057335 -1.731873
2008-05-29 09:05:04 51°17.361 2°42.889 20.4553 0.010307 0.057336 -1.731873
2008-05-29 09:05:09 51°17.372 2°42.867 20.4548 0.010307 0.057336 -1.731873
2008-05-29 09:05:14 51°17.382 2°42.846 20.4543 0.010307 0.057338 -1.731873
2008-05-29 09:05:19 51°17.393 2°42.824 20.4548 0.010307 0.05734 -1.766697
2008-05-29 09:05:25 51°17.406 2°42.798 20.4528 0.010307 0.05734 -1.766697
2008-05-29 09:05:29 51°17.415 2°42.781 20.4501 0.010307 0.057341 -1.731873
2008-05-29 09:05:34 51°17.426 2°42.759 20.4509 0.010307 0.057342 -1.731873
2008-05-29 09:05:39 51°17.437 2°42.738 20.4559 0.010307 0.057343 -1.731873
2008-05-29 09:05:44 51°17.448 2°42.716 20.4596 0.010307 0.057343 -1.731873
2008-05-29 09:05:49 51°17.459 2°42.695 20.4571 0.010307 0.057346 -1.731873
2008-05-29 09:05:54 51°17.469 2°42.673 20.4597 0.010307 0.057346 -1.731873
2008-05-29 09:05:59 51°17.48 2°42.651 20.461 0.010307 0.057347 -1.731873
2008-05-29 09:06:05 51°17.493 2°42.624 20.4636 0.010307 0.057348 -1.731873
2008-05-29 09:06:09 51°17.501 2°42.607 20.462 0.010307 0.05735 -1.731873
2008-05-29 09:06:14 51°17.511 2°42.584 20.4608 0.010307 0.057351 -1.731873
2008-05-29 09:06:19 51°17.521 2°42.562 20.4558 0.010307 0.057353 -1.731873
2008-05-29 09:06:25 51°17.533 2°42.534 20.462 0.010307 0.057353 -1.731873
2008-05-29 09:06:29 51°17.542 2°42.516 20.458 0.010307 0.057353 -1.731873
2008-05-29 09:06:34 51°17.552 2°42.494 20.4593 0.010307 0.057354 -1.731873
2008-05-29 09:06:39 51°17.562 2°42.471 20.46 0.010307 0.057355 -1.766697
2008-05-29 09:06:44 51°17.573 2°42.449 20.4576 0.010307 0.057356 -1.731873
2008-05-29 09:06:49 51°17.584 2°42.427 20.4568 0.010307 0.057356 -1.766697
2008-05-29 09:06:54 51°17.595 2°42.405 20.4617 0.010307 0.057356 -1.766697
2008-05-29 09:06:59 51°17.606 2°42.384 20.4624 0.010307 0.057358 -1.731873
2008-05-29 09:07:04 51°17.617 2°42.362 20.4651 0.010307 0.057359 -1.766697
2008-05-29 09:07:09 51°17.629 2°42.341 20.4629 0.010307 0.057361 -1.731873
2008-05-29 09:07:14 51°17.64 2°42.32 20.4646 0.006602 0.038805 -1.731873
2008-05-29 09:07:19 51°17.652 2°42.299 20.4611 0.010307 0.057364 -1.731873
2008-05-29 09:07:25 51°17.665 2°42.273 20.4659 0.010307 0.057364 -1.731873
2008-05-29 09:07:29 51°17.675 2°42.256 20.4646 0.010307 0.057366 -1.731873
2008-05-29 09:07:34 51°17.686 2°42.235 20.4648 0.010307 0.057367 -1.731873
2008-05-29 09:07:39 51°17.698 2°42.213 20.4639 0.010307 0.057368 -1.766697
2008-05-29 09:07:44 51°17.709 2°42.192 20.4665 0.010307 0.05737 -1.766697
2008-05-29 09:07:49 51°17.721 2°42.171 20.4637 0.010307 0.057371 -1.766697
2008-05-29 09:07:54 51°17.733 2°42.15 20.4633 0.010307 0.057371 -1.766697
2008-05-29 09:07:59 51°17.745 2°42.129 20.4695 0.010307 0.057371 -1.731873
2008-05-29 09:08:05 51°17.759 2°42.103 20.4635 0.010307 0.057374 -1.731873
2008-05-29 09:08:09 51°17.767 2°42.085 20.471 0.010307 0.057376 -1.731873
2008-05-29 09:08:14 51°17.778 2°42.063 20.4595 0.010307 0.057377 -1.731873
2008-05-29 09:08:19 51°17.789 2°42.041 20.4675 0.010307 0.057377 -1.731873
2008-05-29 09:08:25 51°17.802 2°42.014 20.4697 0.010307 0.057377 -1.731873
2008-05-29 09:08:29 51°17.81 2°41.995 20.4753 0.010307 0.057379 -1.731873
2008-05-29 09:08:34 51°17.82 2°41.973 20.4726 0.010307 0.05738 -1.731873
2008-05-29 09:08:39 51°17.83 2°41.949 20.4741 0.010307 0.057383 -1.766697
2008-05-29 09:08:45 51°17.842 2°41.922 20.4733 0.010307 0.057383 -1.731873
2008-05-29 09:08:49 51°17.849 2°41.903 20.4684 0.010307 0.057385 -1.731873
2008-05-29 09:08:54 51°17.858 2°41.88 20.4712 0.010307 0.057385 -1.731873
2008-05-29 09:08:59 51°17.867 2°41.856 20.4728 0.010307 0.057386 -1.731873
2008-05-29 09:09:05 51°17.879 2°41.829 20.4687 0.010307 0.057386 -1.731873
2008-05-29 09:09:09 51°17.887 2°41.81 20.4747 0.010307 0.057387 -1.731873
2008-05-29 09:09:14 51°17.896 2°41.787 20.4696 0.010307 0.057389 -1.731873
2008-05-29 09:09:19 51°17.906 2°41.763 20.473 0.010307 0.057391 -1.731873
2008-05-29 09:09:25 51°17.917 2°41.736 20.4737 0.010307 0.057391 -1.731873
2008-05-29 09:09:29 51°17.925 2°41.717 20.4748 0.010307 0.057391 -1.731873
2008-05-29 09:09:34 51°17.934 2°41.694 20.4761 0.010307 0.057393 -1.731873
2008-05-29 09:09:39 51°17.944 2°41.671 20.4752 0.010307 0.057395 -1.731873
2008-05-29 09:09:44 51°17.953 2°41.648 20.4798 0.010307 0.057395 -1.731873
2008-05-29 09:09:49 51°17.963 2°41.625 20.4682 0.010307 0.057398 -1.731873
2008-05-29 09:09:54 51°17.972 2°41.601 20.4758 0.010307 0.057398 -1.731873
2008-05-29 09:09:59 51°17.981 2°41.578 20.4763 0.010307 0.057398 -1.731873
2008-05-29 09:10:05 51°17.991 2°41.55 20.4775 0.010307 0.057398 -1.731873
2008-05-29 09:10:09 51°17.998 2°41.531 20.4791 0.010307 0.057399 -1.731873
2008-05-29 09:10:14 51°18.007 2°41.507 20.4754 0.010307 0.057401 -1.731873
2008-05-29 09:10:19 51°18.015 2°41.484 20.4791 0.010307 0.057401 -1.766697
2008-05-29 09:10:25 51°18.026 2°41.455 20.4811 0.010307 0.057401 -1.766697
2008-05-29 09:10:29 51°18.033 2°41.436 20.4777 0.010307 0.057403 -1.731873
2008-05-29 09:10:34 51°18.042 2°41.412 20.4799 0.010307 0.057404 -1.731873
2008-05-29 09:10:40 51°18.052 2°41.384 20.4744 0.010307 0.057405 -1.731873
2008-05-29 09:10:45 51°18.061 2°41.36 20.4795 0.010307 0.057406 -1.731873
2008-05-29 09:10:49 51°18.067 2°41.341 20.4824 0.010307 0.057407 -1.731873
2008-05-29 09:10:54 51°18.076 2°41.318 20.4764 0.010307 0.057407 -1.731873
2008-05-29 09:10:59 51°18.085 2°41.294 20.4826 0.010307 0.057409 -1.766697
2008-05-29 09:11:04 51°18.093 2°41.27 20.4807 0.010307 0.057409 -1.731873
2008-05-29 09:11:09 51°18.102 2°41.246 20.4794 0.010307 0.057411 -1.731873
2008-05-29 09:11:14 51°18.111 2°41.223 20.4817 0.010307 0.057411 -1.731873
2008-05-29 09:11:19 51°18.119 2°41.199 20.4809 0.010307 0.057414 -1.731873
2008-05-29 09:11:25 51°18.13 2°41.17 20.4756 0.010307 0.057414 -1.731873
2008-05-29 09:11:29 51°18.137 2°41.151 20.4842 0.010307 0.057414 -1.731873
2008-05-29 09:11:34 51°18.146 2°41.128 20.4833 0.010307 0.057414 -1.731873
2008-05-29 09:11:39 51°18.155 2°41.104 20.4855 0.010307 0.057417 -1.731873
2008-05-29 09:11:44 51°18.164 2°41.081 20.4849 0.010307 0.057419 -1.766697
2008-05-29 09:11:49 51°18.173 2°41.058 20.4846 0.010307 0.05742 -1.766697
2008-05-29 09:11:54 51°18.182 2°41.034 20.4835 0.010307 0.05742 -1.766697
2008-05-29 09:11:59 51°18.19 2°41.01 20.4814 0.010307 0.057422 -1.731873
2008-05-29 09:12:04 51°18.199 2°40.986 20.4866 0.010307 0.057423 -1.731873
2008-05-29 09:12:09 51°18.207 2°40.962 20.4802 0.010307 0.057424 -1.731873
2008-05-29 09:12:14 51°18.216 2°40.938 20.4864 0.010307 0.057426 -1.731873
2008-05-29 09:12:19 51°18.224 2°40.914 20.4773 0.010307 0.057427 -1.731873
2008-05-29 09:12:25 51°18.235 2°40.886 20.4851 0.010307 0.057427 -1.731873
2008-05-29 09:12:29 51°18.241 2°40.867 20.4848 0.010307 0.057428 -1.731873
2008-05-29 09:12:34 51°18.25 2°40.843 20.4862 0.010307 0.057428 -1.731873
2008-05-29 09:12:40 51°18.26 2°40.815 20.4806 0.010307 0.057432 -1.731873
2008-05-29 09:12:44 51°18.267 2°40.796 20.4812 0.010307 0.057432 -1.766697
2008-05-29 09:12:49 51°18.276 2°40.773 20.4895 0.010307 0.057433 -1.731873
2008-05-29 09:12:54 51°18.285 2°40.75 20.4922 0.010307 0.057433 -1.731873
2008-05-29 09:12:59 51°18.293 2°40.726 20.4941 0.010307 0.057435 -1.731873
2008-05-29 09:13:05 51°18.304 2°40.698 20.4858 0.010307 0.057437 -1.766697
2008-05-29 09:13:09 51°18.31 2°40.678 20.4895 0.010307 0.057439 -1.766697
2008-05-29 09:13:14 51°18.319 2°40.655 20.4868 0.010307 0.05744 -1.731873
2008-05-29 09:13:19 51°18.328 2°40.631 20.4868 0.010307 0.057441 -1.731873
2008-05-29 09:13:25 51°18.339 2°40.604 20.4938 0.010307 0.057441 -1.731873
2008-05-29 09:13:29 51°18.346 2°40.585 20.494 0.010307 0.057442 -1.731873
2008-05-29 09:13:34 51°18.355 2°40.562 20.4938 0.010307 0.057443 -1.731873
2008-05-29 09:13:39 51°18.365 2°40.539 20.489 0.008661 0.049112 -1.731873
2008-05-29 09:13:44 51°18.374 2°40.516 20.4955 0.010307 0.057446 -1.731873
2008-05-29 09:13:49 51°18.384 2°40.494 20.4913 0.010307 0.057448 -1.731873
2008-05-29 09:13:54 51°18.394 2°40.472 20.4965 0.010307 0.057448 -1.731873
2008-05-29 09:13:59 51°18.404 2°40.45 20.4921 0.010307 0.057449 -1.731873
2008-05-29 09:14:04 51°18.414 2°40.427 20.4946 0.010307 0.057451 -1.731873
2008-05-29 09:14:09 51°18.424 2°40.405 20.4961 0.010307 0.057453 -1.731873
2008-05-29 09:14:14 51°18.435 2°40.383 20.4971 0.010307 0.057454 -1.731873
2008-05-29 09:14:19 51°18.444 2°40.361 20.4974 0.010307 0.057455 -1.731873
2008-05-29 09:14:25 51°18.456 2°40.334 20.4992 0.010307 0.057455 -1.731873
2008-05-29 09:14:29 51°18.463 2°40.316 20.5001 0.010307 0.057458 -1.731873
2008-05-29 09:14:34 51°18.473 2°40.294 20.498 0.010307 0.057458 -1.731873
2008-05-29 09:14:39 51°18.482 2°40.271 20.4913 0.010307 0.057461 -1.731873
2008-05-29 09:14:44 51°18.491 2°40.248 20.5015 0.010307 0.057461 -1.731873
2008-05-29 09:14:49 51°18.5 2°40.224 20.5 0.010307 0.057463 -1.766697
2008-05-29 09:14:54 51°18.509 2°40.202 20.4951 0.010307 0.057463 -1.766697
2008-05-29 09:14:59 51°18.518 2°40.178 20.499 0.010307 0.057463 -1.731873
2008-05-29 09:15:05 51°18.53 2°40.151 20.502 0.010307 0.057464 -1.731873
2008-05-29 09:15:09 51°18.537 2°40.133 20.4973 0.010307 0.057466 -1.731873
2008-05-29 09:15:14 51°18.547 2°40.11 20.5032 0.010307 0.057466 -1.731873
2008-05-29 09:15:19 51°18.556 2°40.087 20.5012 0.010307 0.057469 -1.731873
2008-05-29 09:15:25 51°18.567 2°40.059 20.5037 0.010307 0.057469 -1.731873
2008-05-29 09:15:29 51°18.575 2°40.041 20.5025 0.010307 0.057469 -1.731873
2008-05-29 09:15:34 51°18.584 2°40.018 20.5029 0.010307 0.05747 -1.766697
2008-05-29 09:15:39 51°18.594 2°39.995 20.5015 0.010307 0.057471 -1.766697
2008-05-29 09:15:44 51°18.603 2°39.972 20.5083 0.010307 0.057472 -1.731873
2008-05-29 09:15:49 51°18.612 2°39.948 20.5027 0.010307 0.057475 -1.731873
2008-05-29 09:15:54 51°18.622 2°39.926 20.5038 0.010307 0.057475 -1.731873
2008-05-29 09:15:59 51°18.631 2°39.902 20.5073 0.010307 0.057475 -1.731873
2008-05-29 09:16:05 51°18.642 2°39.875 20.5023 0.010307 0.057476 -1.731873
2008-05-29 09:16:09 51°18.65 2°39.857 20.5054 0.010307 0.057476 -1.731873
2008-05-29 09:16:14 51°18.659 2°39.834 20.5086 0.010307 0.057478 -1.731873
2008-05-29 09:16:19 51°18.669 2°39.811 20.4984 0.010307 0.057479 -1.731873
2008-05-29 09:16:25 51°18.681 2°39.783 20.5067 0.010307 0.057479 -1.731873
2008-05-29 09:16:29 51°18.688 2°39.765 20.4987 0.010307 0.05748 -1.731873
2008-05-29 09:16:34 51°18.698 2°39.742 20.5105 0.010307 0.057481 -1.731873
2008-05-29 09:16:39 51°18.708 2°39.719 20.506 0.010307 0.057482 -1.766697
2008-05-29 09:16:44 51°18.717 2°39.696 20.5005 0.010307 0.057482 -1.766697
2008-05-29 09:16:49 51°18.727 2°39.674 20.5037 0.010307 0.057482 -1.731873
2008-05-29 09:16:54 51°18.737 2°39.651 20.5026 0.010307 0.057482 -1.731873
2008-05-29 09:17:00 51°18.75 2°39.624 20.5093 0.010307 0.057484 -1.731873
2008-05-29 09:17:05 51°18.76 2°39.602 20.5101 0.010307 0.057485 -1.731873
2008-05-29 09:17:09 51°18.768 2°39.584 20.5047 0.010307 0.057487 -1.731873
2008-05-29 09:17:14 51°18.779 2°39.561 20.5064 0.010307 0.057488 -1.766697
2008-05-29 09:17:19 51°18.789 2°39.539 20.5122 0.010307 0.05749 -1.766697
2008-05-29 09:17:25 51°18.8 2°39.511 20.5159 0.010307 0.05749 -1.766697
2008-05-29 09:17:29 51°18.808 2°39.493 20.5099 0.010307 0.05749 -1.731873
2008-05-29 09:17:34 51°18.818 2°39.47 20.5147 0.010307 0.057492 -1.731873
2008-05-29 09:17:39 51°18.828 2°39.447 20.5017 0.010307 0.057492 -1.731873
2008-05-29 09:17:45 51°18.839 2°39.418 20.5126 0.010307 0.057492 -1.731873
2008-05-29 09:17:49 51°18.847 2°39.4 20.5043 0.010307 0.057496 -1.731873
2008-05-29 09:17:54 51°18.856 2°39.377 20.5135 0.010307 0.057496 -1.731873
2008-05-29 09:17:59 51°18.866 2°39.354 20.5082 0.010307 0.057495 -1.731873
2008-05-29 09:18:05 51°18.877 2°39.326 20.515 0.010307 0.057498 -1.766697
2008-05-29 09:18:09 51°18.885 2°39.308 20.5099 0.010307 0.057499 -1.731873
2008-05-29 09:18:14 51°18.895 2°39.285 20.5155 0.010307 0.0575 -1.731873
2008-05-29 09:18:19 51°18.905 2°39.262 20.5162 0.010307 0.057502 -1.731873
2008-05-29 09:18:25 51°18.916 2°39.234 20.5183 0.010307 0.057502 -1.731873
2008-05-29 09:18:29 51°18.924 2°39.216 20.5133 0.010307 0.057504 -1.731873
2008-05-29 09:18:34 51°18.934 2°39.193 20.5165 0.010307 0.057505 -1.731873
2008-05-29 09:18:39 51°18.943 2°39.17 20.5198 0.010307 0.057507 -1.731873
2008-05-29 09:18:44 51°18.953 2°39.147 20.508 0.010307 0.05751 -1.731873
2008-05-29 09:18:49 51°18.962 2°39.124 20.5133 0.00969 0.054369 -1.731873
2008-05-29 09:18:54 51°18.972 2°39.101 20.5198 0.00969 0.054369 -1.731873
2008-05-29 09:19:00 51°18.983 2°39.073 20.5114 0.010204 0.056987 -1.731873
2008-05-29 09:19:05 51°18.993 2°39.05 20.5189 0.00969 0.054373 -1.731873
2008-05-29 09:19:09 51°19 2°39.032 20.5196 0.010101 0.056465 -1.731873
2008-05-29 09:19:14 51°19.01 2°39.009 20.5183 0.010307 0.057517 -1.731873
2008-05-29 09:19:19 51°19.02 2°38.986 20.5178 0.010307 0.057518 -1.731873
2008-05-29 09:19:25 51°19.031 2°38.958 20.5192 0.010307 0.057518 -1.731873
2008-05-29 09:19:29 51°19.039 2°38.94 20.5205 0.010307 0.05752 -1.766697
2008-05-29 09:19:34 51°19.048 2°38.916 20.5204 0.010307 0.057522 -1.731873
2008-05-29 09:19:40 51°19.06 2°38.888 20.5226 0.010307 0.057523 -1.731873
2008-05-29 09:19:45 51°19.069 2°38.865 20.5182 0.010307 0.057525 -1.731873
2008-05-29 09:19:49 51°19.077 2°38.847 20.5265 0.010307 0.057526 -1.731873
2008-05-29 09:19:54 51°19.087 2°38.824 20.5166 0.010307 0.057526 -1.731873
2008-05-29 09:19:59 51°19.096 2°38.801 20.5187 0.010307 0.057528 -1.731873
2008-05-29 09:20:05 51°19.107 2°38.773 20.5153 0.010307 0.057531 -1.731873
2008-05-29 09:20:09 51°19.114 2°38.755 20.5241 0.010307 0.057531 -1.731873
2008-05-29 09:20:14 51°19.123 2°38.733 20.5246 0.010307 0.057533 -1.731873
2008-05-29 09:20:19 51°19.132 2°38.711 20.5291 0.010307 0.057533 -1.731873
2008-05-29 09:20:25 51°19.143 2°38.685 20.5192 0.010307 0.057533 -1.731873
2008-05-29 09:20:29 51°19.15 2°38.667 20.5261 0.010204 0.057012 -1.731873
2008-05-29 09:20:34 51°19.159 2°38.645 20.5275 0.010307 0.057536 -1.766697
2008-05-29 09:20:39 51°19.168 2°38.622 20.5254 0.010307 0.057538 -1.731873
2008-05-29 09:20:44 51°19.177 2°38.599 20.5306 0.010307 0.05754 -1.731873
2008-05-29 09:20:49 51°19.185 2°38.575 20.5251 0.010307 0.05754 -1.766697
2008-05-29 09:20:54 51°19.194 2°38.552 20.5237 0.010307 0.05754 -1.766697
2008-05-29 09:21:00 51°19.205 2°38.524 20.5287 0.010307 0.057541 -1.766697
2008-05-29 09:21:05 51°19.213 2°38.5 20.5248 0.010307 0.057542 -1.766697
2008-05-29 09:21:09 51°19.22 2°38.481 20.5243 0.010307 0.057546 -1.731873
2008-05-29 09:21:14 51°19.228 2°38.457 20.5224 0.010307 0.057546 -1.731873
2008-05-29 09:21:19 51°19.237 2°38.433 20.5302 0.010307 0.057548 -1.731873
2008-05-29 09:21:25 51°19.247 2°38.405 20.5254 0.010307 0.057548 -1.731873
2008-05-29 09:21:29 51°19.254 2°38.386 20.528 0.010307 0.057549 -1.766697
2008-05-29 09:21:34 51°19.262 2°38.362 20.53 0.010307 0.057552 -1.731873
2008-05-29 09:21:40 51°19.273 2°38.334 20.527 0.010307 0.057552 -1.766697
2008-05-29 09:21:45 51°19.281 2°38.31 20.5273 0.010307 0.057555 -1.731873
2008-05-29 09:21:49 51°19.288 2°38.291 20.5307 0.010307 0.057555 -1.766697
2008-05-29 09:21:54 51°19.298 2°38.268 20.5248 0.010307 0.057555 -1.766697
2008-05-29 09:21:59 51°19.308 2°38.246 20.5336 0.010307 0.057556 -1.766697
2008-05-29 09:22:05 51°19.322 2°38.22 20.533 0.010307 0.057555 -1.731873
2008-05-29 09:22:09 51°19.33 2°38.203 20.5315 0.010307 0.057559 -1.731873
2008-05-29 09:22:14 51°19.341 2°38.182 20.5331 0.010307 0.05756 -1.731873
2008-05-29 09:22:19 51°19.352 2°38.16 20.5384 0.010307 0.057563 -1.731873
2008-05-29 09:22:25 51°19.365 2°38.134 20.5419 0.010307 0.057563 -1.731873
2008-05-29 09:22:29 51°19.374 2°38.117 20.5333 0.010307 0.057565 -1.731873
2008-05-29 09:22:34 51°19.384 2°38.095 20.5378 0.010307 0.057568 -1.731873
2008-05-29 09:22:39 51°19.395 2°38.074 20.5423 0.010307 0.057569 -1.731873
2008-05-29 09:22:44 51°19.406 2°38.052 20.5415 0.010307 0.05757 -1.731873
2008-05-29 09:22:49 51°19.416 2°38.031 20.5356 0.010307 0.057573 -1.731873
2008-05-29 09:22:54 51°19.427 2°38.009 20.5414 0.010307 0.057573 -1.731873
2008-05-29 09:22:59 51°19.437 2°37.987 20.5359 0.010307 0.057575 -1.731873
2008-05-29 09:23:04 51°19.447 2°37.965 20.537 0.010307 0.057576 -1.731873
2008-05-29 09:23:09 51°19.457 2°37.943 20.5403 0.010307 0.057578 -1.731873
2008-05-29 09:23:14 51°19.467 2°37.921 20.5384 0.010307 0.05758 -1.766697
2008-05-29 09:23:19 51°19.477 2°37.899 20.54 0.010307 0.057581 -1.731873
2008-05-29 09:23:25 51°19.49 2°37.873 20.5439 0.010307 0.057581 -1.731873
2008-05-29 09:23:29 51°19.498 2°37.856 20.5358 0.010307 0.057582 -1.731873
2008-05-29 09:23:34 51°19.508 2°37.834 20.5426 0.010307 0.057584 -1.766697
2008-05-29 09:23:39 51°19.519 2°37.812 20.5444 0.010307 0.057584 -1.766697
2008-05-29 09:23:44 51°19.529 2°37.791 20.5401 0.010307 0.057586 -1.731873
2008-05-29 09:23:49 51°19.54 2°37.77 20.5403 0.010307 0.057587 -1.731873
2008-05-29 09:23:54 51°19.55 2°37.748 20.5392 0.010307 0.057587 -1.731873
2008-05-29 09:24:00 51°19.562 2°37.723 20.5392 0.010307 0.057591 -1.731873
2008-05-29 09:24:05 51°19.572 2°37.701 20.5373 0.010307 0.057592 -1.766697
2008-05-29 09:24:09 51°19.58 2°37.684 20.5328 0.010307 0.057593 -1.731873
2008-05-29 09:24:14 51°19.59 2°37.663 20.5331 0.010307 0.057594 -1.731873
2008-05-29 09:24:19 51°19.601 2°37.642 20.5419 0.010307 0.057595 -1.731873
2008-05-29 09:24:25 51°19.613 2°37.617 20.5317 0.010307 0.057595 -1.731873
2008-05-29 09:24:29 51°19.622 2°37.601 20.5439 0.010307 0.057597 -1.731873
2008-05-29 09:24:34 51°19.632 2°37.581 20.5356 0.010307 0.057598 -1.731873
2008-05-29 09:24:39 51°19.643 2°37.562 20.5426 0.010307 0.0576 -1.731873
2008-05-29 09:24:45 51°19.655 2°37.539 20.5463 0.010307 0.057602 -1.731873
2008-05-29 09:24:49 51°19.663 2°37.524 20.5451 0.010307 0.057604 -1.731873
2008-05-29 09:24:54 51°19.673 2°37.506 20.5544 0.010307 0.057604 -1.731873
2008-05-29 09:24:59 51°19.683 2°37.488 20.5568 0.010307 0.057605 -1.766697
2008-05-29 09:25:05 51°19.695 2°37.466 20.5536 0.010307 0.057607 -1.731873
2008-05-29 09:25:09 51°19.703 2°37.452 20.5463 0.010307 0.057609 -1.731873
2008-05-29 09:25:14 51°19.713 2°37.434 20.5513 0.010307 0.05761 -1.731873
2008-05-29 09:25:19 51°19.722 2°37.416 20.5475 0.010307 0.057613 -1.731873
2008-05-29 09:25:25 51°19.734 2°37.395 20.553 0.010307 0.057613 -1.731873
2008-05-29 09:25:29 51°19.742 2°37.38 20.5565 0.010307 0.057612 -1.731873
2008-05-29 09:25:34 51°19.751 2°37.362 20.5527 0.010307 0.057615 -1.731873
2008-05-29 09:25:39 51°19.76 2°37.345 20.5558 0.010307 0.057616 -1.731873
2008-05-29 09:25:44 51°19.77 2°37.326 20.5474 0.010307 0.057618 -1.731873
2008-05-29 09:25:49 51°19.779 2°37.309 20.5489 0.010307 0.057621 -1.766697
2008-05-29 09:25:54 51°19.788 2°37.293 20.5498 0.010307 0.057621 -1.766697
2008-05-29 09:25:59 51°19.796 2°37.277 20.5531 0.010307 0.057621 -1.731873
2008-05-29 09:26:05 51°19.804 2°37.261 20.5536 0.010307 0.057624 -1.731873
2008-05-29 09:26:09 51°19.81 2°37.251 20.5585 0.010307 0.057624 -1.766697
2008-05-29 09:26:14 51°19.816 2°37.239 20.553 0.010307 0.057626 -1.731873
2008-05-29 09:26:19 51°19.823 2°37.229 20.5557 0.010307 0.057625 -1.731873
2008-05-29 09:26:25 51°19.83 2°37.217 20.5604 0.010307 0.057625 -1.731873
2008-05-29 09:26:29 51°19.834 2°37.209 20.5612 0.010307 0.057627 -1.731873
2008-05-29 09:26:34 51°19.839 2°37.2 20.5573 0.010307 0.057629 -1.766697
2008-05-29 09:26:39 51°19.844 2°37.192 20.5537 0.010307 0.05763 -1.731873
2008-05-29 09:26:45 51°19.849 2°37.182 20.5603 0.010307 0.057632 -1.731873
2008-05-29 09:26:49 51°19.853 2°37.176 20.5565 0.010307 0.057633 -1.731873
2008-05-29 09:26:54 51°19.857 2°37.169 20.5587 0.010307 0.057633 -1.731873
2008-05-29 09:26:59 51°19.861 2°37.162 20.5627 0.010307 0.057635 -1.731873
2008-05-29 09:27:05 51°19.866 2°37.153 20.5637 0.010307 0.057635 -1.731873
2008-05-29 09:27:09 51°19.869 2°37.148 20.5654 0.010307 0.057637 -1.731873
2008-05-29 09:27:14 51°19.872 2°37.142 20.564 0.010307 0.057639 -1.731873
2008-05-29 09:27:19 51°19.876 2°37.136 20.5625 0.010307 0.057639 -1.731873
2008-05-29 09:27:25 51°19.88 2°37.128 20.5683 0.010307 0.057639 -1.731873
2008-05-29 09:27:29 51°19.883 2°37.124 20.5626 0.010307 0.05764 -1.766697
2008-05-29 09:27:34 51°19.887 2°37.118 20.5594 0.010307 0.057641 -1.731873
2008-05-29 09:27:39 51°19.89 2°37.113 20.5601 0.010307 0.057642 -1.731873
2008-05-29 09:27:44 51°19.893 2°37.107 20.5694 0.010307 0.057643 -1.731873
2008-05-29 09:27:49 51°19.896 2°37.101 20.5706 0.010307 0.057643 -1.731873
2008-05-29 09:27:54 51°19.9 2°37.096 20.5677 0.010307 0.057643 -1.731873
2008-05-29 09:27:59 51°19.903 2°37.091 20.5641 0.010307 0.057644 -1.731873
2008-05-29 09:28:05 51°19.907 2°37.086 20.5682 0.010307 0.057645 -1.731873
2008-05-29 09:28:09 51°19.909 2°37.082 20.5688 0.010307 0.057646 -1.731873
2008-05-29 09:28:14 51°19.912 2°37.077 20.5689 0.010307 0.057646 -1.766697
2008-05-29 09:28:19 51°19.915 2°37.073 20.5704 0.010307 0.057648 -1.731873
2008-05-29 09:28:24 51°19.918 2°37.068 20.5675 0.010307 0.057648 -1.731873
2008-05-29 09:28:29 51°19.921 2°37.064 20.568 0.010307 0.057648 -1.731873
2008-05-29 09:28:34 51°19.924 2°37.06 20.568 0.010307 0.057649 -1.731873
2008-05-29 09:28:39 51°19.927 2°37.056 20.5701 0.010307 0.05765 -1.766697
2008-05-29 09:28:45 51°19.931 2°37.051 20.573 0.010307 0.057651 -1.731873
2008-05-29 09:28:49 51°19.934 2°37.048 20.5694 0.010307 0.057651 -1.731873
2008-05-29 09:28:54 51°19.937 2°37.043 20.5735 0.010307 0.057651 -1.731873
2008-05-29 09:28:59 51°19.941 2°37.039 20.5752 0.010307 0.057651 -1.731873
2008-05-29 09:29:05 51°19.945 2°37.034 20.5707 0.010307 0.057651 -1.731873
2008-05-29 09:29:09 51°19.947 2°37.03 20.5685 0.010307 0.057651 -1.766697
2008-05-29 09:29:14 51°19.951 2°37.026 20.5671 0.010307 0.057651 -1.766697
2008-05-29 09:29:19 51°19.954 2°37.021 20.5663 0.010307 0.057651 -1.731873
2008-05-29 09:29:25 51°19.959 2°37.015 20.5739 0.010307 0.057651 -1.731873
2008-05-29 09:29:29 51°19.962 2°37.011 20.574 0.010307 0.057651 -1.731873
2008-05-29 09:29:34 51°19.965 2°37.007 20.5739 0.010307 0.057651 -1.731873
2008-05-29 09:29:39 51°19.969 2°37.002 20.5712 0.010307 0.057651 -1.731873
2008-05-29 09:29:45 51°19.974 2°36.996 20.5735 0.010307 0.057652 -1.731873
2008-05-29 09:29:49 51°19.977 2°36.992 20.5719 0.010307 0.057653 -1.766697
2008-05-29 09:29:54 51°19.981 2°36.987 20.5771 0.010307 0.057653 -1.766697
2008-05-29 09:29:59 51°19.985 2°36.983 20.5769 0.010204 0.057126 -1.766697
2008-05-29 09:30:04 51°19.989 2°36.978 20.5774 0.010307 0.057653 -1.731873
2008-05-29 09:30:09 51°19.993 2°36.973 20.5676 0.010307 0.057654 -1.731873
2008-05-29 09:30:14 51°19.997 2°36.967 20.5796 0.010307 0.057653 -1.731873
2008-05-29 09:30:19 51°20.001 2°36.962 20.5787 0.010307 0.057654 -1.731873
2008-05-29 09:30:25 51°20.005 2°36.956 20.5724 0.010307 0.057654 -1.731873
2008-05-29 09:30:29 51°20.009 2°36.951 20.5742 0.010307 0.057654 -1.731873
2008-05-29 09:30:34 51°20.013 2°36.946 20.5755 0.010307 0.057655 -1.731873
2008-05-29 09:30:39 51°20.016 2°36.94 20.5776 0.010307 0.057655 -1.731873
2008-05-29 09:30:45 51°20.02 2°36.934 20.5724 0.010307 0.057655 -1.731873
2008-05-29 09:30:49 51°20.022 2°36.93 20.5797 0.010204 0.057129 -1.731873
2008-05-29 09:30:54 51°20.025 2°36.925 20.5793 0.010204 0.057129 -1.731873
2008-05-29 09:31:00 51°20.029 2°36.92 20.5781 0.010204 0.057129 -1.731873
2008-05-29 09:31:05 51°20.032 2°36.915 20.5809 0.010307 0.057655 -1.731873
2008-05-29 09:31:09 51°20.034 2°36.912 20.5771 0.010307 0.057656 -1.731873
2008-05-29 09:31:14 51°20.036 2°36.908 20.5794 0.010307 0.057655 -1.766697
2008-05-29 09:31:19 51°20.039 2°36.904 20.5748 0.010204 0.057129 -1.731873
2008-05-29 09:31:25 51°20.041 2°36.9 20.5751 0.010204 0.057129 -1.731873
2008-05-29 09:31:29 51°20.043 2°36.897 20.5778 0.010204 0.05713 -1.731873
2008-05-29 09:31:34 51°20.045 2°36.894 20.5812 0.010307 0.057656 -1.731873
2008-05-29 09:31:39 51°20.047 2°36.892 20.5807 0.010204 0.057129 -1.731873
2008-05-29 09:31:45 51°20.05 2°36.889 20.5797 0.010307 0.057656 -1.731873
2008-05-29 09:31:49 51°20.051 2°36.887 20.5821 0.010204 0.05713 -1.731873
2008-05-29 09:31:54 51°20.053 2°36.885 20.5825 0.010204 0.05713 -1.731873
2008-05-29 09:31:59 51°20.054 2°36.884 20.5809 0.010204 0.057129 -1.731873
2008-05-29 09:32:05 51°20.056 2°36.882 20.5849 0.008866 0.050318 -1.766697
2008-05-29 09:32:09 51°20.057 2°36.881 20.5804 0.010204 0.057129 -1.731873
2008-05-29 09:32:14 51°20.058 2°36.88 20.5818 0.010204 0.057129 -1.731873
2008-05-29 09:32:19 51°20.06 2°36.879 20.5853 0.010204 0.057129 -1.731873
2008-05-29 09:32:24 51°20.061 2°36.878 20.5814 0.010204 0.057129 -1.731873
2008-05-29 09:32:29 51°20.062 2°36.878 20.5852 0.010204 0.05713 -1.731873
2008-05-29 09:32:34 51°20.062 2°36.877 20.5833 0.010204 0.057131 -1.731873
2008-05-29 09:32:39 51°20.063 2°36.877 20.581 0.010204 0.057131 -1.731873
2008-05-29 09:32:45 51°20.064 2°36.877 20.5811 0.010204 0.057131 -1.731873
2008-05-29 09:32:49 51°20.064 2°36.876 20.5828 0.010204 0.057131 -1.731873
2008-05-29 09:32:54 51°20.064 2°36.876 20.5856 0.010204 0.057131 -1.731873
2008-05-29 09:32:59 51°20.065 2°36.876 20.5886 0.010204 0.057131 -1.766697
2008-05-29 09:33:05 51°20.065 2°36.876 20.581 0.010204 0.057131 -1.766697
2008-05-29 09:33:09 51°20.066 2°36.876 20.5829 0.010204 0.057132 -1.766697
2008-05-29 09:33:14 51°20.066 2°36.876 20.5863 0.010204 0.057132 -1.731873
2008-05-29 09:33:19 51°20.066 2°36.876 20.5902 0.010204 0.057132 -1.731873
2008-05-29 09:33:25 51°20.066 2°36.876 20.5906 0.010204 0.057132 -1.731873
2008-05-29 09:33:29 51°20.066 2°36.876 20.5886 0.010204 0.057133 -1.731873
2008-05-29 09:33:34 51°20.066 2°36.876 20.5948 0.010204 0.057133 -1.731873
2008-05-29 09:33:39 51°20.066 2°36.876 20.5928 0.010204 0.057133 -1.731873
2008-05-29 09:33:45 51°20.066 2°36.876 20.5889 0.010204 0.057133 -1.731873
2008-05-29 09:33:49 51°20.066 2°36.876 20.5935 0.010204 0.057134 -1.766697
2008-05-29 09:33:54 51°20.066 2°36.876 20.5928 0.010204 0.057134 -1.766697
2008-05-29 09:33:59 51°20.066 2°36.876 20.5907 0.010307 0.05766 -1.731873